<- Previous Day | Today | Next Day ->

All Data for 14 January 2021

 

Time A - D Temp A - D Dew Point A - D Humidity A - D Pressure A - D Wind A - D Wind Dir Gust A - D Rain Rate A - D Rain Total
00:00 10.2 8.3 88 1019.3 13.0 S 17.4 0.0 0.0
00:01 10.2 8.3 88 1019.2 11.4 W 17.4 0.0 0.0
00:02 10.2 8.3 88 1019.2 15.2 SW 17.4 0.0 0.0
00:03 10.2 8.3 88 1019.1 10.7 SW 17.4 0.0 0.0
00:04 10.2 8.3 88 1019.4 13.0 NW 15.2 0.0 0.0
00:05 10.2 8.3 88 1019.3 13.0 NW 15.2 0.0 0.0
00:06 10.2 8.3 88 1019.3 13.6 S 15.2 0.0 0.0
00:07 10.2 8.3 88 1019.1 13.6 SE 15.2 0.0 0.0
00:08 10.2 8.3 88 1019.2 9.8 SW 15.2 0.0 0.0
00:09 10.2 8.3 88 1019.1 13.6 W 15.2 0.0 0.0
00:10 10.2 8.3 88 1019.1 15.9 SW 15.9 0.0 0.0
00:11 10.2 8.3 88 1019.1 15.9 SW 15.9 0.0 0.0
00:12 10.2 8.3 88 1019.0 15.2 W 15.9 0.0 0.0
00:13 10.2 8.3 88 1019.1 15.2 SW 15.9 0.0 0.0
00:14 10.2 8.3 88 1019.1 10.7 SW 15.9 0.8 0.1
00:15 10.2 8.3 88 1019.0 13.0 SW 15.9 0.8 0.1
00:16 10.2 8.3 88 1019.0 16.8 SW 16.8 0.8 0.1
00:17 10.2 8.3 88 1019.1 16.8 S 16.8 0.8 0.1
00:18 10.2 8.3 88 1019.0 13.6 S 16.8 0.8 0.1
00:19 10.2 8.3 88 1018.9 9.8 S 16.8 0.0 0.1
00:21 10.2 8.3 88 1019.0 12.1 SSW 16.8 0.0 0.1
00:22 10.2 8.3 88 1018.9 15.2 SW 16.8 0.0 0.1
00:23 10.2 8.3 88 1019.0 13.0 W 16.8 0.0 0.1
00:24 10.2 8.3 88 1018.9 16.8 WSW 16.8 0.0 0.1
00:25 10.2 8.3 88 1019.0 13.6 SW 16.8 0.0 0.1
00:26 10.2 8.3 88 1019.0 19.0 SW 19.0 0.0 0.1
00:27 10.2 8.3 88 1018.9 12.1 SW 19.0 0.0 0.1
00:28 10.2 8.3 88 1018.9 12.1 SW 19.0 0.0 0.1
00:29 10.2 8.3 88 1018.8 15.9 W 19.0 0.0 0.1
00:30 10.2 8.3 88 1018.9 13.0 SW 19.0 0.0 0.1
00:31 10.2 8.3 88 1018.6 15.9 SW 19.0 0.0 0.1
00:32 10.2 8.3 88 1018.6 15.9 SW 19.0 0.0 0.1
00:33 10.2 8.3 88 1018.7 12.1 SW 19.0 0.0 0.1
00:34 10.2 8.3 88 1018.7 13.6 SW 19.0 0.0 0.1
00:35 10.2 8.3 88 1018.8 13.6 SW 19.0 0.0 0.1
00:36 10.2 8.3 88 1018.4 12.1 NW 19.0 0.0 0.1
00:37 10.2 8.3 88 1018.7 15.9 SW 15.9 0.0 0.1
00:38 10.2 8.3 88 1018.6 14.5 SW 15.9 0.0 0.1
00:39 10.2 8.3 88 1018.5 13.0 SW 15.9 0.0 0.1
00:40 10.2 8.3 88 1018.9 19.0 SW 19.0 0.0 0.1
00:41 10.2 8.3 88 1018.7 15.2 SW 19.0 0.0 0.1
00:42 10.2 8.3 88 1018.6 13.6 W 19.0 0.0 0.1
00:43 10.2 8.3 88 1018.6 13.0 S 19.0 0.0 0.1
00:44 10.2 8.3 88 1018.6 18.3 SW 19.0 0.0 0.1
00:45 10.2 8.3 88 1018.5 14.5 SW 19.0 0.0 0.1
00:46 10.2 8.3 88 1018.4 12.1 SSW 19.0 0.0 0.1
00:48 10.2 8.3 88 1018.4 17.4 SW 19.0 0.0 0.1
00:49 10.2 8.3 88 1018.4 17.4 SW 19.0 0.0 0.1
00:50 10.2 8.3 88 1018.3 16.8 SW 18.3 0.0 0.1
00:51 10.2 8.3 88 1018.4 16.8 SW 18.3 0.0 0.1
00:52 10.2 8.3 88 1018.4 15.9 S 18.3 0.0 0.1
00:53 10.2 8.3 88 1018.3 14.5 SW 18.3 0.0 0.1
00:54 10.2 8.3 88 1018.4 22.1 SW 22.1 0.0 0.1
00:55 10.2 8.3 88 1018.2 16.8 SW 22.1 0.0 0.1
00:56 10.2 8.3 88 1018.0 19.0 SW 22.1 0.0 0.1
00:57 10.2 8.3 88 1018.2 13.0 SW 22.1 0.0 0.1
00:58 10.2 8.3 88 1018.2 15.2 S 22.1 0.0 0.1
00:59 10.2 8.3 88 1018.1 13.0 SW 22.1 0.0 0.1
01:00 10.2 8.3 88 1018.2 19.7 SW 22.1 0.0 0.1
01:01 10.2 8.3 88 1018.3 19.7 SW 22.1 0.0 0.1
01:02 10.2 8.3 88 1018.1 19.7 SW 22.1 0.0 0.1
01:03 10.2 8.3 88 1018.3 19.7 SW 22.1 0.0 0.1
01:05 10.2 8.3 88 1018.1 19.7 SW 19.7 0.0 0.1
01:06 10.2 8.3 88 1017.9 19.7 SW 19.7 0.0 0.1
01:07 10.2 8.3 88 1018.0 19.7 SW 19.7 0.0 0.1
01:08 10.2 8.3 88 1017.7 15.2 WSW 19.7 0.8 0.1
01:09 10.2 8.3 88 1017.9 21.3 SW 21.3 0.8 0.1
01:10 10.2 8.3 88 1018.0 16.8 NNW 21.3 0.8 0.1
01:11 10.2 8.3 88 1018.0 16.8 S 21.3 0.8 0.1
01:12 10.2 8.3 88 1017.9 17.4 SW 21.3 0.8 0.1
01:13 10.2 8.3 88 1018.2 17.4 S 21.3 0.0 0.1
01:14 10.2 8.3 88 1017.9 15.9 SE 21.3 0.0 0.1
01:15 10.2 8.3 88 1018.0 14.5 SW 21.3 0.0 0.1
01:17 10.2 8.3 88 1017.9 19.0 SW 21.3 0.8 0.2
01:19 10.2 8.3 88 1017.8 19.0 S 21.3 0.8 0.2
01:20 10.2 8.3 88 1017.8 15.2 SW 19.0 0.8 0.2
01:22 10.2 8.3 88 1017.8 14.5 S 19.0 0.0 0.2
01:23 10.2 8.3 88 1017.9 17.4 SW 19.0 0.0 0.2
01:24 10.2 8.3 88 1017.7 16.8 SW 19.0 0.0 0.2
01:26 10.2 8.3 88 1017.6 16.8 SW 19.0 0.0 0.2
01:27 10.2 8.3 88 1017.6 16.8 S 19.0 0.0 0.2
01:28 10.3 8.4 88 1017.7 15.2 W 19.0 0.0 0.2
01:29 10.3 8.4 88 1017.7 13.0 W 17.4 0.0 0.2
01:30 10.3 8.4 88 1017.7 15.9 W 17.4 0.0 0.2
01:31 10.3 8.4 88 1017.7 15.2 SW 17.4 0.0 0.2
01:32 10.3 8.4 88 1017.6 18.3 SW 18.3 0.0 0.2
01:33 10.3 8.4 88 1017.7 16.8 SW 18.3 0.0 0.2
01:34 10.3 8.4 88 1017.5 13.0 W 18.3 0.0 0.2
01:35 10.3 8.4 88 1017.7 15.2 W 18.3 0.0 0.2
01:36 10.3 8.4 88 1017.4 9.8 W 18.3 0.0 0.2
01:37 10.3 8.4 88 1017.4 15.9 SW 18.3 0.0 0.2
01:38 10.3 8.4 88 1017.6 13.0 W 18.3 0.0 0.3
01:39 10.3 8.4 88 1017.6 16.8 S 18.3 0.8 0.3
01:40 10.3 8.4 88 1017.6 11.4 SW 18.3 0.8 0.3
01:41 10.3 8.4 88 1017.5 14.5 SW 18.3 0.8 0.3
01:42 10.3 8.4 88 1017.4 14.5 SW 18.3 0.8 0.3
01:43 10.3 8.4 88 1017.5 14.5 SW 16.8 0.8 0.3
01:44 10.3 8.4 88 1017.4 14.5 SW 16.8 0.0 0.3
01:45 10.3 8.4 88 1017.7 14.5 SW 16.8 0.0 0.3
01:46 10.3 8.4 88 1017.3 15.9 SW 16.8 0.0 0.3
01:47 10.3 8.4 88 1017.2 16.8 SW 16.8 0.0 0.3
01:48 10.3 8.4 88 1017.3 13.0 SSW 16.8 0.0 0.3
01:49 10.3 8.4 88 1017.5 14.5 SW 16.8 0.0 0.3
01:50 10.3 8.4 88 1017.5 19.0 SW 19.0 0.8 0.3
01:51 10.3 8.4 88 1017.2 19.0 SW 19.0 0.8 0.3
01:53 10.3 8.4 88 1017.1 17.4 SW 19.0 0.8 0.3
01:54 10.3 8.4 88 1017.2 18.3 SW 19.0 0.8 0.3
01:55 10.3 8.4 88 1017.4 19.0 SW 19.0 0.0 0.3
01:56 10.3 8.4 88 1017.2 14.5 SW 19.0 0.0 0.3
01:57 10.3 8.4 88 1017.4 14.5 SW 19.0 0.0 0.3
01:58 10.3 8.4 88 1017.3 15.2 WSW 19.0 0.0 0.4
01:59 10.3 8.4 88 1017.3 17.4 SW 19.0 0.8 0.4
02:00 10.3 8.4 88 1017.3 16.8 SW 19.0 0.8 0.4
02:01 10.3 8.4 88 1017.3 16.8 SW 19.0 0.8 0.4
02:02 10.3 8.4 88 1017.3 15.9 SW 19.0 0.8 0.4
02:03 10.3 8.4 88 1017.0 13.0 SW 19.0 0.8 0.4
02:04 10.3 8.4 88 1017.2 13.6 SW 19.0 0.0 0.4
02:05 10.3 8.4 88 1017.4 13.6 SW 19.0 0.0 0.4
02:07 10.3 8.4 88 1017.1 12.1 SW 17.4 0.8 0.4
02:08 10.3 8.4 88 1017.0 9.2 SW 17.4 0.8 0.4
02:09 10.3 8.4 88 1017.1 11.4 W 16.8 0.8 0.4
02:10 10.3 8.4 88 1017.1 12.1 SSW 16.8 0.8 0.4
02:11 10.3 8.6 89 1017.2 13.6 SW 15.9 0.8 0.4
02:12 10.3 8.6 89 1017.1 12.1 W 15.9 0.0 0.4
02:13 10.3 8.6 89 1017.1 12.1 W 15.9 0.0 0.4
02:14 10.4 8.7 89 1017.1 13.6 SSW 16.8 0.0 0.5
02:15 10.4 8.7 89 1017.1 12.1 SW 16.8 0.8 0.5
02:16 10.4 8.7 89 1017.2 15.2 SW 16.8 1.5 0.6
02:17 10.4 8.7 89 1017.2 15.2 W 16.8 1.5 0.6
02:18 10.4 8.7 89 1017.1 15.9 SW 19.0 1.5 0.6
02:19 10.4 8.7 89 1017.0 11.4 SW 19.0 1.5 0.6
02:20 10.4 8.7 89 1017.0 15.2 S 19.0 0.8 0.6
02:22 10.4 8.7 89 1016.9 15.9 SW 19.0 0.0 0.6
02:23 10.4 8.7 89 1016.9 13.6 WSW 19.0 0.0 0.6
02:24 10.4 8.7 89 1016.8 17.4 SW 19.0 0.0 0.6
02:25 10.4 8.7 89 1016.9 17.4 SW 19.0 0.0 0.6
02:26 10.4 8.7 89 1016.9 15.9 SW 19.0 0.0 0.6
02:27 10.4 8.7 89 1017.1 15.9 NE 19.0 0.0 0.6
02:28 10.4 8.7 89 1017.1 17.4 SW 17.4 0.0 0.6
02:29 10.4 8.7 89 1017.0 15.9 SW 17.4 0.0 0.6
02:30 10.4 8.7 89 1016.8 12.1 W 17.4 0.0 0.6
02:31 10.4 8.7 89 1016.9 13.6 SW 17.4 0.0 0.6
02:32 10.4 8.7 89 1017.0 13.6 SW 17.4 0.0 0.6
02:33 10.4 8.7 89 1016.9 15.2 W 17.4 0.0 0.6
02:34 10.4 8.7 89 1016.9 14.5 W 17.4 0.0 0.6
02:36 10.4 8.7 89 1016.8 13.0 SW 17.4 0.8 0.6
02:37 10.4 8.7 89 1017.0 13.0 S 17.4 0.8 0.6
02:38 10.4 8.7 89 1016.9 14.5 SW 16.8 0.8 0.6
02:39 10.4 8.7 89 1016.8 12.1 SW 16.8 0.8 0.6
02:40 10.4 8.7 89 1016.9 16.8 SW 16.8 0.0 0.6
02:41 10.5 8.8 89 1016.8 13.6 S 16.8 0.0 0.6
02:42 10.5 8.8 89 1016.9 15.2 SW 16.8 0.0 0.6
02:43 10.5 8.8 89 1016.9 14.5 SW 16.8 0.0 0.6
02:44 10.5 8.8 89 1016.8 14.5 SW 16.8 0.0 0.6
02:45 10.5 8.8 89 1016.8 17.4 SW 17.4 0.0 0.6
02:46 10.5 8.8 89 1016.8 16.8 W 17.4 0.0 0.6
02:47 10.5 8.8 89 1016.8 17.4 SW 17.4 0.0 0.6
02:48 10.5 8.8 89 1016.7 15.9 SW 17.4 0.0 0.6
02:50 10.5 8.8 89 1016.8 17.4 SW 17.4 0.0 0.6
02:51 10.5 8.8 89 1017.0 15.9 S 17.4 0.0 0.6
02:52 10.5 8.8 89 1016.8 13.0 W 17.4 0.0 0.6
02:53 10.5 8.8 89 1017.0 15.9 SW 17.4 0.0 0.6
02:54 10.5 8.8 89 1016.8 13.0 SW 17.4 0.0 0.6
02:55 10.5 8.8 89 1016.7 13.6 SW 17.4 0.8 0.7
02:56 10.5 8.8 89 1016.7 13.6 SW 17.4 0.8 0.7
02:57 10.5 8.8 89 1016.8 13.6 SW 17.4 0.8 0.7
02:58 10.5 8.8 89 1016.9 15.2 SSW 17.4 0.8 0.7
02:59 10.5 8.8 89 1016.7 10.7 W 17.4 0.8 0.7
03:00 10.5 8.8 89 1016.7 13.0 S 17.4 0.0 0.7
03:01 10.5 8.8 89 1016.7 13.0 S 15.9 0.0 0.7
03:02 10.5 8.8 89 1016.7 13.0 S 15.9 0.0 0.7
03:04 10.5 8.8 89 1016.5 11.4 WSW 15.9 0.0 0.7
03:05 10.5 8.8 89 1016.5 16.8 NW 16.8 0.0 0.7
03:06 10.6 8.9 89 1016.7 15.2 W 16.8 0.0 0.7
03:07 10.6 8.9 89 1016.7 13.0 W 16.8 0.0 0.7
03:08 10.6 8.9 89 1016.6 10.7 W 16.8 0.0 0.7
03:09 10.6 8.9 89 1016.6 10.7 W 16.8 0.0 0.7
03:10 10.6 8.9 89 1016.8 15.2 WSW 16.8 0.0 0.7
03:11 10.6 8.9 89 1016.7 10.7 W 16.8 0.0 0.7
03:12 10.6 8.9 89 1016.8 11.4 SW 16.8 0.0 0.7
03:13 10.6 8.9 89 1016.7 13.0 SW 16.8 0.0 0.7
03:14 10.6 8.9 89 1016.7 9.8 WSW 16.8 0.0 0.7
03:15 10.6 8.9 89 1016.5 15.9 SW 16.8 0.0 0.7
03:16 10.6 8.9 89 1016.6 15.9 SW 15.9 0.0 0.7
03:18 10.6 8.9 89 1016.6 11.4 SW 15.9 0.8 0.8
03:19 10.6 8.9 89 1016.7 16.8 W 16.8 0.8 0.8
03:20 10.6 8.9 89 1016.7 15.2 W 16.8 1.5 0.8
03:21 10.6 8.9 89 1016.8 15.9 W 16.8 1.5 0.8
03:22 10.6 8.9 89 1016.7 15.9 W 16.8 0.8 0.8
03:23 10.6 8.9 89 1016.4 13.0 W 16.8 0.8 0.8
03:24 10.6 8.9 89 1016.7 9.8 W 16.8 0.8 0.8
03:25 10.6 8.9 89 1016.6 12.1 W 16.8 0.8 0.9
03:26 10.6 8.9 89 1016.7 15.9 SW 17.4 0.8 0.9
03:27 10.6 8.9 89 1016.9 15.2 W 17.4 0.8 0.9
03:28 10.6 8.9 89 1016.8 13.6 SW 17.4 0.8 0.9
03:29 10.6 8.9 89 1016.8 13.0 SW 17.4 0.8 0.9
03:30 10.6 8.9 89 1016.8 14.5 W 17.4 0.0 0.9
03:32 10.6 8.9 89 1016.8 16.8 W 22.8 0.8 0.9
03:33 10.6 8.9 89 1016.6 16.8 SW 22.8 0.8 0.9
03:34 10.6 8.9 89 1016.9 16.8 W 22.8 0.8 0.9
03:35 10.6 8.9 89 1016.6 15.9 W 22.8 0.8 0.9
03:36 10.6 8.9 89 1016.7 13.6 W 22.8 0.0 0.9
03:37 10.6 8.9 89 1016.7 13.6 W 22.8 0.0 0.9
03:38 10.6 8.9 89 1016.7 16.8 W 22.8 0.0 0.9
03:39 10.6 8.9 89 1016.6 17.4 W 22.8 0.0 0.9
03:40 10.6 8.9 89 1016.8 13.6 SW 22.8 0.0 0.9
03:41 10.6 8.9 89 1016.7 12.1 W 22.8 0.0 0.9
03:42 10.6 8.9 89 1016.5 15.2 NW 22.8 0.8 1.0
03:43 10.5 8.8 89 1016.8 16.8 W 17.4 0.8 1.0
03:44 10.5 8.8 89 1016.7 13.6 W 17.4 0.8 1.0
03:46 10.5 8.8 89 1016.5 14.5 W 17.4 0.8 1.0
03:47 10.5 8.8 89 1016.6 15.2 WNW 17.4 0.0 1.0
03:48 10.5 8.8 89 1016.6 17.4 W 17.4 0.0 1.0
03:49 10.5 8.8 89 1016.7 17.4 W 17.4 0.0 1.0
03:50 10.5 8.8 89 1016.7 17.4 W 17.4 0.0 1.0
03:51 10.5 8.8 89 1016.6 17.4 W 17.4 0.0 1.0
03:52 10.5 8.8 89 1016.7 16.8 WNW 17.4 0.0 1.0
03:53 10.5 8.8 89 1016.6 14.5 NW 17.4 0.0 1.0
03:54 10.5 8.8 89 1016.6 15.2 W 17.4 0.0 1.1
03:55 10.5 8.8 89 1016.6 14.5 NW 17.4 0.8 1.1
03:56 10.4 8.7 89 1016.6 14.5 SW 17.4 0.8 1.1
03:57 10.4 8.7 89 1016.7 21.3 W 21.3 0.8 1.1
03:58 10.4 8.7 89 1016.8 15.9 W 21.3 0.8 1.1
04:00 10.4 8.7 89 1016.8 19.0 W 21.3 0.0 1.1
04:01 10.4 8.7 89 1016.7 19.0 W 21.3 0.0 1.1
04:02 10.4 8.7 89 1016.4 19.0 W 21.3 0.0 1.1
04:03 10.4 8.7 89 1016.6 19.0 W 21.3 0.0 1.1
04:04 10.4 8.7 89 1016.7 19.0 W 21.3 0.0 1.1
04:05 10.4 8.7 89 1016.7 19.0 W 21.3 0.0 1.1
04:06 10.4 8.7 89 1016.7 19.0 W 21.3 0.0 1.1
04:07 10.3 8.6 89 1016.6 16.8 W 19.0 0.0 1.1
04:08 10.3 8.6 89 1016.8 19.7 W 19.7 0.0 1.1
04:09 10.3 8.6 89 1016.8 17.4 W 19.7 0.0 1.1
04:10 10.3 8.6 89 1016.5 16.8 W 19.7 0.0 1.1
04:11 10.2 8.5 89 1016.8 14.5 SW 19.7 0.0 1.1
04:12 10.2 8.5 89 1016.8 14.5 SW 19.7 0.0 1.1
04:14 10.2 8.5 89 1016.6 18.3 SW 19.7 0.0 1.1
04:15 10.2 8.5 89 1016.5 15.9 SW 19.7 0.0 1.1
04:16 10.2 8.5 89 1016.5 19.0 SW 19.7 0.0 1.1
04:17 10.2 8.5 89 1016.6 19.0 W 19.7 0.0 1.1
04:18 10.2 8.5 89 1016.7 14.5 W 19.0 0.0 1.1
04:19 10.2 8.5 89 1016.5 17.4 W 19.0 0.0 1.1
04:20 10.2 8.5 89 1016.5 17.4 W 19.0 0.0 1.1
04:21 10.2 8.5 89 1016.7 13.6 SW 19.0 0.0 1.1
04:22 10.2 8.5 89 1016.5 15.9 SW 19.0 0.0 1.1
04:23 10.2 8.5 89 1016.6 10.7 W 19.0 0.0 1.1
04:24 10.1 8.4 89 1016.5 15.9 W 19.0 0.0 1.1
04:25 10.1 8.4 89 1016.6 14.5 W 19.0 0.0 1.1
04:26 10.1 8.4 89 1016.6 18.3 W 19.0 0.0 1.1
04:28 10.1 8.4 89 1016.6 13.0 WNW 18.3 0.0 1.1
04:29 10.1 8.4 89 1016.7 18.3 NW 18.3 0.0 1.1
04:30 10.1 8.4 89 1016.5 15.2 NW 18.3 0.0 1.1
04:31 10.1 8.4 89 1016.6 14.5 W 18.3 0.0 1.1
04:32 10.1 8.4 89 1016.6 19.0 W 19.0 0.0 1.1
04:33 10.1 8.4 89 1016.6 19.0 W 19.0 0.0 1.1
04:34 10.0 8.1 88 1016.5 19.0 SW 19.0 0.0 1.1
04:35 10.0 8.1 88 1016.5 19.0 SW 19.0 0.0 1.1
04:36 10.0 8.1 88 1016.8 15.2 W 19.0 0.0 1.1
04:37 10.0 8.1 88 1016.6 12.1 W 19.0 0.0 1.1
04:38 10.0 8.1 88 1016.5 12.1 W 19.0 0.0 1.1
04:39 10.0 8.1 88 1016.5 12.1 W 19.0 0.0 1.1
04:40 10.0 8.1 88 1016.5 12.1 W 19.0 0.0 1.1
04:42 9.8 7.9 88 1016.6 15.9 SW 19.0 0.0 1.1
04:43 9.8 7.9 88 1016.7 13.6 NW 19.0 0.0 1.1
04:44 9.8 7.9 88 1016.5 15.2 W 19.0 0.0 1.1
04:45 9.8 7.9 88 1016.6 18.3 W 18.3 0.0 1.1
04:46 9.7 7.8 88 1016.5 19.0 SW 19.0 0.0 1.1
04:47 9.7 7.8 88 1016.3 19.0 W 19.0 0.0 1.1
04:48 9.7 7.8 88 1016.6 15.9 W 19.0 0.0 1.1
04:49 9.7 7.8 88 1016.4 15.9 W 19.0 0.0 1.1
04:50 9.7 7.8 88 1016.7 19.7 SW 19.7 0.0 1.1
04:51 9.7 7.8 88 1016.5 21.3 NW 21.3 0.0 1.1
04:52 9.7 7.8 88 1016.6 17.4 W 21.3 0.0 1.1
04:53 9.6 7.7 88 1016.7 12.1 W 21.3 0.0 1.1
04:54 9.6 7.7 88 1016.7 10.7 NW 21.3 0.0 1.1
04:56 9.6 7.7 88 1016.8 12.1 W 21.3 0.0 1.1
04:57 9.6 7.7 88 1016.8 11.4 WSW 21.3 0.0 1.1
04:58 9.6 7.7 88 1016.7 17.4 WNW 21.3 0.0 1.1
04:59 9.6 7.7 88 1016.7 17.4 W 21.3 0.0 1.1
05:00 9.6 7.7 88 1016.8 17.4 W 21.3 0.0 1.1
05:01 9.6 7.7 88 1016.8 17.4 W 21.3 0.0 1.1
05:02 9.6 7.7 88 1016.8 17.4 W 17.4 0.0 1.1
05:03 9.6 7.7 88 1016.8 17.4 W 17.4 0.0 1.1
05:04 9.6 7.7 88 1016.9 17.4 W 17.4 0.0 1.1
05:05 9.6 7.7 88 1016.8 17.4 W 17.4 0.0 1.1
05:06 9.6 7.7 88 1016.9 17.4 W 17.4 0.0 1.1
05:07 9.6 7.7 88 1016.7 22.1 NW 22.1 0.0 1.1
05:08 9.6 7.7 88 1016.9 15.9 SW 22.1 0.0 1.1
05:10 9.6 7.7 88 1017.0 16.8 SW 22.1 0.0 1.1
05:11 9.6 7.7 88 1016.8 16.8 SW 22.1 0.0 1.1
05:12 9.6 7.7 88 1016.9 16.8 SW 22.1 0.0 1.1
05:13 9.6 7.7 88 1016.9 16.8 SW 22.1 0.0 1.1
05:14 9.6 7.7 88 1016.8 14.5 W 22.1 0.0 1.1
05:15 9.6 7.7 88 1016.9 12.1 NW 22.1 0.0 1.1
05:16 9.6 7.7 88 1016.8 15.9 W 22.1 0.0 1.1
05:17 9.6 7.7 88 1017.1 12.1 SW 22.1 0.0 1.1
05:18 9.6 7.7 88 1017.1 17.4 W 18.3 0.0 1.1
05:19 9.6 7.7 88 1017.0 14.5 W 18.3 0.0 1.1
05:20 9.6 7.7 88 1017.1 13.0 W 17.4 0.0 1.1
05:21 9.6 7.7 88 1017.1 12.1 W 17.4 0.0 1.1
05:22 9.6 7.7 88 1016.8 13.6 NW 17.4 0.0 1.1
05:24 9.6 7.7 88 1017.0 13.6 W 17.4 0.0 1.1
05:25 9.6 7.7 88 1017.2 18.3 W 18.3 0.0 1.1
05:26 9.6 7.7 88 1017.2 18.3 W 18.3 0.0 1.1
05:27 9.6 7.7 88 1017.2 14.5 W 18.3 0.8 1.1
05:28 9.6 7.7 88 1017.3 13.0 S 18.3 0.8 1.1
05:29 9.6 7.7 88 1017.0 16.8 W 18.3 0.8 1.1
05:30 9.6 7.7 88 1017.1 16.8 W 18.3 0.8 1.1
05:31 9.6 7.7 88 1017.1 15.2 W 18.3 0.8 1.1
05:32 9.6 7.7 88 1017.0 12.1 W 18.3 0.0 1.1
05:33 9.6 7.7 88 1017.1 11.4 W 18.3 0.0 1.1
05:34 9.6 7.7 88 1017.4 14.5 NW 18.3 0.0 1.1
05:35 9.6 7.7 88 1017.1 16.8 W 18.3 0.0 1.1
05:36 9.6 7.7 88 1017.3 13.6 W 18.3 0.0 1.1
05:38 9.6 7.7 88 1017.1 18.3 W 18.3 0.0 1.1
05:39 9.6 7.7 88 1017.1 13.0 W 18.3 0.0 1.1
05:40 9.6 7.7 88 1017.1 10.7 WNW 18.3 0.0 1.1
05:41 9.6 7.7 88 1017.1 11.4 W 18.3 0.0 1.1
05:42 9.6 7.7 88 1017.1 15.9 N 18.3 0.0 1.1
05:43 9.6 7.7 88 1017.1 9.2 W 18.3 0.0 1.1
05:44 9.6 7.7 88 1017.2 17.4 W 18.3 0.0 1.1
05:45 9.6 7.7 88 1016.8 15.2 W 18.3 0.0 1.1
05:46 9.6 7.7 88 1017.1 15.2 NW 18.3 0.0 1.1
05:47 9.6 7.7 88 1017.1 13.0 W 18.3 0.0 1.1
05:48 9.6 7.7 88 1016.9 13.0 NW 18.3 0.0 1.1
05:49 9.6 7.7 88 1016.9 18.3 W 18.3 0.0 1.1
05:50 9.6 7.7 88 1017.3 13.0 W 18.3 0.0 1.1
05:52 9.6 7.7 88 1016.9 10.7 W 18.3 0.0 1.1
05:53 9.6 7.7 88 1016.9 13.6 NW 18.3 0.0 1.1
05:54 9.6 7.7 88 1017.2 11.4 NW 18.3 0.0 1.1
05:55 9.6 7.7 88 1017.2 11.4 NW 18.3 0.0 1.1
05:56 9.6 7.7 88 1017.1 13.6 W 18.3 0.0 1.1
05:57 9.6 7.7 88 1017.0 13.6 NW 18.3 0.0 1.1
05:58 9.6 7.7 88 1017.1 12.1 W 18.3 0.0 1.2
05:59 9.6 7.7 88 1017.2 12.1 W 18.3 0.8 1.2
06:00 9.6 7.7 88 1017.2 11.4 SW 13.6 0.8 1.2
06:01 9.6 7.7 88 1017.0 15.2 W 15.2 0.8 1.2
06:02 9.6 7.7 88 1017.2 15.9 NW 15.9 0.8 1.2
06:03 9.6 7.7 88 1017.1 14.5 W 15.9 0.8 1.2
06:04 9.6 7.7 88 1017.2 16.8 W 16.8 0.0 1.2
06:06 9.6 7.7 88 1017.3 13.0 W 16.8 0.0 1.2
06:07 9.6 7.7 88 1017.3 14.5 W 16.8 0.0 1.2
06:08 9.6 7.7 88 1017.5 18.3 W 18.3 0.0 1.2
06:09 9.6 7.7 88 1017.3 16.8 W 18.3 0.0 1.2
06:10 9.6 7.7 88 1017.4 17.4 W 18.3 0.0 1.2
06:11 9.6 7.7 88 1017.5 14.5 W 18.3 0.0 1.2
06:12 9.6 7.7 88 1017.3 16.8 NW 18.3 0.0 1.2
06:13 9.6 7.7 88 1017.3 11.4 SW 18.3 0.0 1.2
06:14 9.6 7.7 88 1017.3 14.5 W 18.3 0.0 1.2
06:15 9.6 7.7 88 1017.6 14.5 SW 18.3 0.0 1.2
06:16 9.6 7.7 88 1017.5 10.7 W 18.3 0.0 1.2
06:17 9.6 7.7 88 1017.5 14.5 W 18.3 0.0 1.2
06:18 9.6 7.7 88 1017.5 19.7 W 19.7 0.0 1.2
06:20 9.6 7.7 88 1017.3 16.8 NW 20.6 0.0 1.2
06:21 9.6 7.7 88 1017.4 16.8 NW 20.6 0.0 1.3
06:22 9.6 7.7 88 1017.7 14.5 WSW 20.6 0.8 1.3
06:23 9.6 7.7 88 1017.4 15.2 W 20.6 0.8 1.3
06:24 9.6 7.7 88 1017.7 18.3 NW 20.6 0.8 1.3
06:25 9.6 7.7 88 1017.5 18.3 S 20.6 0.8 1.3
06:26 9.6 7.7 88 1017.5 15.9 NW 20.6 0.8 1.3
06:27 9.6 7.7 88 1017.6 16.8 SW 20.6 0.0 1.3
06:28 9.6 7.7 88 1017.4 16.8 W 20.6 0.0 1.3
06:29 9.6 7.7 88 1017.4 18.3 W 20.6 0.0 1.3
06:30 9.6 7.7 88 1017.3 15.9 WNW 20.6 0.0 1.3
06:31 9.6 7.7 88 1017.5 14.5 SW 18.3 0.0 1.3
06:32 9.6 7.7 88 1017.4 18.3 SW 18.3 0.0 1.3
06:34 9.6 7.7 88 1017.4 16.8 W 18.3 0.0 1.3
06:35 9.6 7.7 88 1017.5 15.2 NNW 18.3 0.0 1.3
06:36 9.6 7.7 88 1017.5 10.7 W 18.3 0.0 1.3
06:37 9.6 7.7 88 1017.6 16.8 NW 18.3 0.0 1.3
06:38 9.6 7.7 88 1017.6 16.8 N 18.3 0.0 1.3
06:39 9.6 7.7 88 1017.4 15.2 NW 18.3 0.0 1.3
06:40 9.6 7.7 88 1017.6 15.2 W 18.3 0.0 1.3
06:41 9.6 7.7 88 1017.6 19.7 W 19.7 0.8 1.3
06:42 9.6 7.7 88 1017.5 14.5 SW 19.7 0.8 1.3
06:43 9.6 7.7 88 1017.5 20.6 NNW 25.9 0.8 1.3
06:44 9.6 7.7 88 1017.5 13.6 SW 25.9 0.8 1.3
06:45 9.6 7.7 88 1017.5 13.6 W 25.9 0.8 1.3
06:46 9.6 7.7 88 1017.6 16.8 W 25.9 0.0 1.3
06:48 9.6 7.7 88 1017.6 22.1 SW 25.9 0.0 1.3
06:49 9.6 7.7 88 1017.7 22.1 W 25.9 0.0 1.3
06:50 9.6 7.7 88 1017.5 13.0 W 25.9 0.0 1.3
06:51 9.6 7.7 88 1017.5 13.6 W 25.9 0.0 1.3
06:52 9.6 7.7 88 1017.6 14.5 NW 22.1 0.0 1.3
06:53 9.6 7.7 88 1017.6 14.5 W 22.1 0.0 1.3
06:54 9.6 7.7 88 1017.7 11.4 W 22.1 0.0 1.3
06:55 9.6 7.7 88 1017.5 13.6 SW 22.1 0.0 1.3
06:56 9.5 7.6 88 1017.7 13.6 SW 22.1 0.0 1.3
06:57 9.5 7.6 88 1017.6 14.5 W 22.1 0.0 1.3
06:58 9.5 7.6 88 1017.7 13.6 NW 22.1 0.0 1.3
06:59 9.5 7.6 88 1017.7 11.4 NW 22.1 0.0 1.3
07:00 9.5 7.6 88 1017.7 10.7 S 14.5 0.0 1.3
07:02 9.5 7.6 88 1017.6 10.7 S 14.5 0.0 1.3
07:03 9.5 7.6 88 1017.6 10.7 S 14.5 0.0 1.3
07:04 9.5 7.6 88 1017.6 10.7 S 14.5 0.0 1.3
07:05 9.5 7.6 88 1017.7 10.7 S 14.5 0.0 1.3
07:06 9.5 7.6 88 1017.8 10.7 S 14.5 0.0 1.3
07:07 9.5 7.6 88 1017.3 17.4 NW 17.4 0.0 1.3
07:08 9.5 7.6 88 1017.6 17.4 W 17.4 0.0 1.3
07:09 9.5 7.6 88 1017.5 16.8 N 17.4 0.0 1.3
07:10 9.5 7.6 88 1017.7 16.8 W 17.4 0.0 1.3
07:11 9.5 7.6 88 1017.7 16.8 W 17.4 0.0 1.3
07:12 9.5 7.6 88 1017.8 9.8 W 17.4 0.0 1.3
07:13 9.5 7.6 88 1017.8 9.8 W 17.4 0.0 1.3
07:14 9.5 7.6 88 1017.8 7.6 W 17.4 0.0 1.3
07:15 9.5 7.6 88 1018.0 11.4 WNW 17.4 0.0 1.3
07:17 9.4 7.5 88 1017.6 16.8 SW 17.4 0.0 1.3
07:18 9.4 7.5 88 1017.8 16.8 W 16.8 0.0 1.3
07:19 9.4 7.5 88 1017.6 15.2 NW 16.8 0.0 1.3
07:20 9.4 7.5 88 1017.8 13.6 W 18.3 0.0 1.3
07:21 9.4 7.5 88 1017.9 12.1 NW 18.3 0.0 1.3
07:22 9.4 7.5 88 1017.7 12.1 W 18.3 0.0 1.3
07:23 9.3 7.4 88 1017.8 13.6 NW 18.3 0.0 1.3
07:24 9.3 7.4 88 1017.8 12.1 W 18.3 0.0 1.3
07:25 9.3 7.4 88 1017.8 13.0 W 18.3 0.0 1.3
07:26 9.3 7.4 88 1017.7 13.0 W 18.3 0.0 1.3
07:27 9.3 7.4 88 1017.8 14.5 W 18.3 0.0 1.3
07:28 9.3 7.4 88 1017.8 12.1 N 18.3 0.0 1.3
07:29 9.3 7.4 88 1017.8 16.8 NW 18.3 0.0 1.3
07:31 9.2 7.3 88 1017.8 13.6 NW 16.8 0.0 1.3
07:32 9.2 7.3 88 1017.6 10.7 NW 16.8 0.0 1.3
07:33 9.2 7.3 88 1017.7 13.0 W 16.8 0.0 1.3
07:34 9.2 7.3 88 1017.7 13.0 NW 16.8 0.0 1.3
07:35 9.2 7.3 88 1017.8 14.5 W 16.8 0.0 1.3
07:36 9.2 7.3 88 1017.8 10.7 N 16.8 0.0 1.3
07:37 9.2 7.3 88 1017.8 10.7 N 16.8 0.0 1.3
07:38 9.2 7.3 88 1018.0 11.4 SW 16.8 0.0 1.3
07:39 9.2 7.3 88 1017.8 17.4 NE 17.4 0.0 1.3
07:40 9.1 7.2 88 1017.6 17.4 SW 17.4 0.8 1.4
07:41 9.1 7.2 88 1017.7 15.2 NW 17.4 0.8 1.4
07:42 9.1 7.2 88 1017.8 13.6 NW 17.4 0.8 1.4
07:43 9.1 7.2 88 1017.7 11.4 N 17.4 0.8 1.4
07:44 9.1 7.2 88 1017.9 15.2 N 17.4 0.8 1.4
07:46 9.1 7.2 88 1017.9 13.6 W 17.4 0.0 1.4
07:47 9.1 7.2 88 1017.9 12.1 NW 17.4 0.0 1.4
07:48 9.1 7.2 88 1017.9 16.8 NW 17.4 0.0 1.4
07:49 9.1 7.2 88 1018.0 25.9 SSE 25.9 0.0 1.4
07:50 9.1 7.2 88 1017.8 20.6 N 25.9 0.0 1.4
07:51 9.1 7.2 88 1018.0 15.9 W 25.9 0.0 1.4
07:52 9.0 7.1 88 1018.0 11.4 N 25.9 0.0 1.4
07:53 9.0 7.1 88 1018.0 13.6 E 25.9 0.0 1.4
07:54 9.0 7.1 88 1018.1 15.2 NW 25.9 0.0 1.4
07:55 9.0 7.1 88 1018.1 15.2 W 25.9 0.0 1.4
07:56 9.0 7.1 88 1017.8 13.6 W 25.9 0.0 1.4
07:57 9.0 7.1 88 1018.1 13.6 W 25.9 0.0 1.4
07:59 9.0 7.1 88 1018.1 16.8 W 25.9 0.0 1.4
08:00 9.0 7.1 88 1017.9 13.6 N 16.8 0.0 1.4
08:01 9.0 7.1 88 1018.2 15.9 W 16.8 0.0 1.4
08:02 9.0 7.1 88 1018.0 14.5 SW 16.8 0.0 1.4
08:03 9.0 7.1 88 1018.1 13.0 NW 16.8 0.0 1.4
08:04 9.0 7.1 88 1018.1 11.4 W 16.8 0.0 1.4
08:05 9.0 7.1 88 1018.1 11.4 W 16.8 0.0 1.4
08:06 9.0 7.1 88 1018.1 15.2 W 16.8 0.0 1.4
08:07 8.9 7.0 88 1018.4 15.2 NW 16.8 0.0 1.4
08:08 8.9 7.0 88 1018.3 13.6 W 16.8 0.0 1.4
08:09 8.9 7.0 88 1018.2 12.1 NW 16.8 0.0 1.4
08:10 8.9 7.0 88 1018.4 14.5 N 15.9 0.0 1.4
08:11 8.9 7.0 88 1018.4 15.9 WNW 15.9 0.0 1.4
08:12 8.9 7.0 88 1018.2 15.9 W 15.9 0.0 1.4
08:13 8.9 7.0 88 1018.2 15.9 N 15.9 0.0 1.4
08:14 8.9 7.0 88 1018.4 15.9 W 15.9 0.0 1.4
08:15 8.9 7.0 88 1018.4 15.2 SW 15.9 0.0 1.4
08:16 8.9 7.0 88 1018.5 9.8 W 15.9 0.0 1.4
08:17 8.9 7.0 88 1018.4 10.7 W 15.9 0.0 1.4
08:18 8.9 7.0 88 1018.4 13.0 SW 15.9 0.0 1.4
08:19 8.9 7.0 88 1018.5 14.5 W 15.9 0.0 1.4
08:20 8.9 7.0 88 1018.5 15.9 W 15.9 0.0 1.4
08:21 8.9 7.0 88 1018.6 13.6 NW 15.9 0.0 1.4
08:22 8.9 7.0 88 1018.6 13.6 NE 15.9 0.0 1.4
08:23 8.9 7.0 88 1018.6 15.2 W 15.9 0.0 1.4
08:24 8.9 7.0 88 1018.6 15.9 NW 15.9 0.0 1.4
08:25 8.9 7.0 88 1018.4 15.9 NW 15.9 0.0 1.4
08:27 8.9 7.0 88 1018.4 16.8 WSW 16.8 0.0 1.4
08:28 8.9 7.0 88 1018.6 13.0 NW 16.8 0.0 1.4
08:29 8.9 7.0 88 1018.8 10.7 NW 16.8 0.0 1.4
08:30 8.9 7.0 88 1018.6 13.0 W 16.8 0.0 1.4
08:31 8.9 7.0 88 1018.6 13.0 N 16.8 0.0 1.4
08:32 8.9 7.0 88 1018.7 17.4 NW 17.4 0.0 1.4
08:33 8.9 7.0 88 1018.7 17.4 NW 17.4 0.0 1.4
08:34 8.9 7.0 88 1018.7 9.2 NW 17.4 0.0 1.4
08:35 8.9 7.0 88 1018.7 18.3 SW 18.3 0.0 1.4
08:36 8.9 7.0 88 1018.7 18.3 NW 18.3 0.0 1.4
08:37 8.9 7.0 88 1018.7 10.7 SW 18.3 0.0 1.4
08:38 8.9 7.0 88 1019.1 15.2 NW 18.3 0.0 1.4
08:39 8.9 7.0 88 1019.0 15.2 NW 18.3 0.0 1.4
08:41 8.9 7.0 88 1018.7 11.4 NW 18.3 0.0 1.4
08:42 8.9 7.0 88 1018.8 9.8 NW 18.3 0.0 1.4
08:43 8.9 7.0 88 1018.9 9.8 NW 18.3 0.0 1.4
08:44 8.9 7.0 88 1018.9 19.7 W 19.7 0.0 1.4
08:45 8.9 7.0 88 1019.0 15.9 W 19.7 0.0 1.4
08:46 8.9 7.0 88 1018.8 11.4 NW 19.7 0.0 1.4
08:47 8.9 7.0 88 1018.9 11.4 W 19.7 0.0 1.4
08:48 8.9 7.0 88 1018.8 12.1 NW 19.7 0.0 1.4
08:49 8.9 7.0 88 1018.8 16.8 NW 19.7 0.0 1.4
08:50 8.9 7.0 88 1019.2 10.7 NW 19.7 0.0 1.4
08:51 8.9 7.0 88 1019.0 15.9 N 19.7 0.0 1.4
08:52 8.9 7.0 88 1018.9 15.2 NW 19.7 0.0 1.4
08:53 8.9 7.0 88 1019.0 15.2 W 19.7 0.0 1.4
08:55 8.9 7.0 88 1019.1 13.0 NNW 16.8 0.0 1.4
08:56 8.9 7.0 88 1018.9 13.0 NW 16.8 0.0 1.4
08:57 8.9 7.0 88 1019.0 19.7 NW 19.7 0.0 1.4
08:58 8.9 7.0 88 1018.9 13.6 W 19.7 0.0 1.4
08:59 8.9 6.9 87 1019.2 13.6 NW 19.7 0.0 1.4
09:00 8.8 6.8 87 1018.9 17.4 W 19.7 0.0 1.4
09:01 8.8 6.8 87 1018.9 17.4 W 19.7 0.0 1.4
09:02 8.8 6.8 87 1018.8 17.4 W 19.7 0.0 1.4
09:03 8.8 6.8 87 1019.1 17.4 W 19.7 0.0 1.4
09:04 8.8 6.8 87 1019.0 17.4 W 19.7 0.0 1.4
09:05 8.8 6.8 87 1019.2 17.4 W 19.7 0.0 1.4
09:06 8.8 6.8 87 1019.1 17.4 W 19.7 0.0 1.4
09:07 8.8 6.8 87 1018.9 17.4 W 19.7 0.0 1.4
09:09 8.8 6.8 87 1019.0 11.4 NW 17.4 0.0 1.4
09:10 8.8 6.8 87 1018.7 11.4 NW 17.4 0.0 1.4
09:11 8.8 6.8 87 1018.9 16.8 NW 17.4 0.0 1.4
09:12 8.8 6.8 87 1019.0 13.6 N 17.4 0.0 1.4
09:13 8.8 6.8 87 1019.1 16.8 SW 17.4 0.0 1.4
09:14 8.8 6.8 87 1019.1 16.8 NW 17.4 0.0 1.4
09:15 8.8 6.8 87 1019.0 19.0 NW 19.0 0.0 1.4
09:16 8.7 6.7 87 1019.2 18.3 N 19.0 0.0 1.4
09:17 8.7 6.7 87 1019.2 11.4 W 19.0 0.0 1.4
09:18 8.7 6.7 87 1018.9 16.8 NW 19.0 0.0 1.4
09:19 8.7 6.7 87 1018.9 16.8 NW 19.0 0.0 1.4
09:20 8.7 6.7 87 1019.2 16.8 SW 19.0 0.0 1.4
09:21 8.7 6.7 87 1019.2 15.9 W 19.0 0.0 1.4
09:22 8.7 6.7 87 1019.2 15.9 S 19.0 0.0 1.4
09:24 8.7 6.7 87 1019.3 11.4 NW 19.7 0.0 1.4
09:25 8.7 6.7 87 1019.1 11.4 NW 19.7 0.0 1.4
09:26 8.7 6.7 87 1019.3 19.7 N 19.7 0.0 1.4
09:27 8.7 6.7 87 1019.4 22.1 NW 22.1 0.0 1.4
09:28 8.7 6.7 87 1019.4 15.9 NW 22.1 0.0 1.4
09:29 8.7 6.7 87 1019.4 15.9 NW 22.1 0.0 1.4
09:30 8.7 6.7 87 1019.2 14.5 W 22.1 0.0 1.4
09:31 8.7 6.7 87 1019.4 13.0 NW 22.1 0.0 1.4
09:32 8.7 6.7 87 1019.4 11.4 SE 22.1 0.0 1.4
09:33 8.7 6.7 87 1019.6 15.9 W 22.1 0.0 1.4
09:34 8.7 6.7 87 1019.4 20.6 W 22.1 0.0 1.4
09:35 8.7 6.7 87 1019.3 15.2 N 22.1 0.0 1.4
09:36 8.7 6.7 87 1019.7 20.6 SW 22.1 0.0 1.4
09:38 8.7 6.7 87 1019.6 13.0 S 20.6 0.0 1.4
09:39 8.7 6.7 87 1019.6 13.0 N 20.6 0.0 1.4
09:40 8.7 6.7 87 1019.6 13.6 E 20.6 0.0 1.4
09:41 8.7 6.7 87 1019.5 10.7 W 20.6 0.0 1.4
09:42 8.7 6.7 87 1019.6 20.6 W 20.6 0.0 1.4
09:43 8.7 6.7 87 1019.5 13.6 WNW 20.6 0.0 1.4
09:44 8.7 6.7 87 1019.5 17.4 NE 20.6 0.0 1.4
09:45 8.7 6.7 87 1019.6 20.6 N 20.6 0.0 1.4
09:46 8.7 6.7 87 1019.6 11.4 NW 20.6 0.0 1.4
09:47 8.7 6.7 87 1019.7 11.4 N 20.6 0.0 1.4
09:48 8.7 6.7 87 1019.6 15.9 NW 20.6 0.0 1.4
09:49 8.7 6.7 87 1019.6 15.9 NW 20.6 0.0 1.4
09:50 8.7 6.7 87 1019.6 16.8 E 20.6 0.0 1.4
09:52 8.8 6.8 87 1019.7 12.1 NW 20.6 0.0 1.4
09:53 8.8 6.8 87 1019.9 10.7 W 20.6 0.0 1.4
09:54 8.8 6.8 87 1019.6 12.1 NW 20.6 0.0 1.4
09:55 8.8 6.8 87 1019.7 12.1 NW 16.8 0.0 1.4
09:56 8.8 6.8 87 1019.7 13.0 W 20.6 0.0 1.4
09:57 8.8 6.8 87 1019.7 9.8 N 20.6 0.0 1.4
09:58 8.8 6.8 87 1019.7 19.0 NW 20.6 0.0 1.4
09:59 8.8 6.8 87 1019.8 19.7 NE 20.6 0.0 1.4
10:00 8.8 6.8 87 1019.8 19.7 NE 20.6 0.0 1.4
10:01 8.8 6.8 87 1019.8 24.4 N 24.4 0.0 1.4
10:02 8.8 6.8 87 1019.9 22.1 W 24.4 0.0 1.4
10:03 8.9 6.9 87 1019.9 19.0 NE 24.4 0.0 1.4
10:04 8.9 6.9 87 1019.7 19.0 NW 24.4 0.0 1.4
10:06 8.9 6.9 87 1019.8 18.3 WNW 24.4 0.0 1.4
10:07 8.9 6.9 87 1019.9 13.0 W 24.4 0.0 1.4
10:08 8.9 6.9 87 1019.8 13.6 N 24.4 0.0 1.4
10:09 8.9 6.9 87 1019.8 15.2 NW 24.4 0.0 1.4
10:10 8.9 6.9 87 1019.9 15.9 WNW 24.4 0.0 1.4
10:11 8.9 6.9 87 1019.9 15.2 NW 22.1 0.0 1.4
10:12 8.9 6.9 87 1019.7 14.5 E 22.1 0.0 1.4
10:13 8.9 6.9 87 1019.8 16.8 NW 19.0 0.0 1.4
10:14 9.0 7.0 87 1020.0 11.4 NW 19.0 0.0 1.4
10:15 9.0 7.0 87 1019.8 11.4 NW 18.3 0.0 1.4
10:16 9.0 7.0 87 1019.7 18.3 W 18.3 0.0 1.4
10:17 9.0 7.0 87 1020.0 18.3 W 18.3 0.0 1.4
10:18 9.0 7.0 87 1020.0 19.7 W 19.7 0.0 1.4
10:19 8.9 6.9 87 1020.0 22.8 NW 22.8 0.0 1.4
10:21 8.9 6.7 86 1020.2 25.1 NW 25.1 0.0 1.4
10:22 8.9 6.7 86 1020.1 16.8 W 25.1 0.0 1.4
10:23 8.9 6.7 86 1020.1 17.4 W 25.1 0.0 1.4
10:24 8.9 6.7 86 1020.1 19.0 NW 25.1 0.0 1.4
10:25 8.9 6.7 86 1020.2 19.0 NW 25.1 0.0 1.4
10:26 8.9 6.7 86 1020.1 15.2 NW 25.1 0.0 1.4
10:27 8.9 6.7 86 1020.0 17.4 NW 25.1 0.0 1.4
10:28 8.9 6.7 86 1020.1 17.4 NW 25.1 0.0 1.4
10:29 9.0 6.8 86 1020.3 14.5 NW 25.1 0.0 1.4
10:30 9.0 6.8 86 1020.3 21.3 NE 25.1 0.0 1.4
10:31 9.0 6.8 86 1020.3 15.2 N 25.1 0.0 1.4
10:32 9.0 6.8 86 1020.2 16.8 W 21.3 0.0 1.4
10:33 9.0 6.8 86 1020.1 16.8 N 21.3 0.0 1.4
10:35 9.0 6.6 85 1020.2 13.0 NW 21.3 0.0 1.4
10:36 9.0 6.6 85 1020.2 13.0 NW 21.3 0.0 1.4
10:37 8.9 6.5 85 1020.2 19.7 W 21.3 0.0 1.4
10:38 8.9 6.5 85 1020.2 13.6 W 21.3 0.0 1.4
10:39 8.9 6.5 85 1020.2 19.0 N 21.3 0.0 1.4
10:40 9.0 6.6 85 1020.1 19.0 NW 21.3 0.0 1.4
10:41 9.0 6.6 85 1020.1 19.0 NW 19.7 0.0 1.4
10:42 9.0 6.6 85 1020.3 16.8 W 19.7 0.0 1.4
10:43 9.0 6.6 85 1020.2 18.3 NE 19.7 0.0 1.4
10:44 9.0 6.4 84 1020.2 18.3 NW 19.7 0.0 1.4
10:45 9.0 6.4 84 1020.1 18.3 NW 19.7 0.0 1.4
10:46 9.0 6.4 84 1020.1 15.9 NW 19.7 0.0 1.4
10:47 9.0 6.4 84 1020.2 15.2 W 19.7 0.0 1.4
10:49 9.0 6.4 84 1020.2 15.9 NW 19.7 0.0 1.4
10:50 9.0 6.4 84 1020.3 14.5 N 19.7 0.0 1.4
10:51 9.0 6.4 84 1020.2 22.1 W 22.1 0.0 1.4
10:52 9.0 6.4 84 1020.1 15.9 W 22.1 0.0 1.4
10:53 9.0 6.4 84 1020.2 14.5 NW 22.1 0.0 1.4
10:54 9.0 6.4 84 1020.1 13.6 S 22.1 0.0 1.4
10:55 9.1 6.5 84 1020.1 20.6 N 22.1 0.0 1.4
10:56 9.1 6.4 83 1020.3 20.6 NW 22.1 0.0 1.4
10:57 9.1 6.4 83 1020.5 19.0 NW 22.1 0.0 1.4
10:58 9.1 6.4 83 1020.3 13.6 NW 22.1 0.0 1.4
10:59 9.1 6.4 83 1020.4 14.5 N 22.1 0.0 1.4
11:00 9.1 6.4 83 1020.3 20.6 NNW 22.1 0.0 1.4
11:01 9.1 6.4 83 1020.2 20.6 NNW 22.1 0.0 1.4
11:03 9.1 6.4 83 1020.4 20.6 NNW 20.6 0.0 1.4
11:04 9.1 6.4 83 1020.5 20.6 NNW 20.6 0.0 1.4
11:05 9.1 6.4 83 1020.3 22.1 W 22.1 0.0 1.4
11:06 9.1 6.4 83 1020.4 16.8 E 22.1 0.0 1.4
11:07 9.1 6.2 82 1020.3 16.8 NW 22.1 0.0 1.4
11:08 9.1 6.2 82 1020.3 14.5 W 22.1 0.0 1.4
11:09 9.1 6.2 82 1020.3 14.5 W 22.1 0.0 1.4
11:10 9.1 6.2 82 1020.2 13.0 NW 22.1 0.0 1.4
11:11 9.1 6.2 82 1020.3 10.7 W 22.1 0.0 1.4
11:12 9.1 6.2 82 1020.2 10.7 NW 22.1 0.0 1.4
11:13 9.1 6.2 82 1020.4 18.3 NW 22.1 0.0 1.4
11:14 9.1 6.2 82 1020.2 14.5 NW 22.1 0.0 1.4
11:15 9.1 6.2 82 1020.4 12.1 NW 22.1 0.0 1.4
11:16 9.1 6.2 82 1020.2 14.5 N 18.3 0.0 1.4
11:17 9.1 6.2 82 1020.3 14.5 NW 18.3 0.0 1.4
11:18 9.1 6.2 82 1020.3 15.2 N 18.3 0.0 1.4
11:20 9.1 6.2 82 1020.2 18.3 WNW 18.3 0.0 1.4
11:21 9.1 6.0 81 1020.4 15.9 NW 18.3 0.0 1.4
11:22 9.1 6.0 81 1020.2 15.9 NW 18.3 0.0 1.4
11:23 9.1 6.0 81 1020.3 16.8 S 18.3 0.0 1.4
11:24 9.1 6.0 81 1020.5 17.4 NW 18.3 0.0 1.4
11:25 9.1 6.0 81 1020.2 15.9 NW 18.3 0.0 1.4
11:26 9.1 6.0 81 1020.2 18.3 NW 18.3 0.0 1.4
11:27 9.1 6.0 81 1020.2 15.9 NW 18.3 0.0 1.4
11:28 9.1 6.0 81 1020.3 13.6 W 18.3 0.0 1.4
11:29 9.1 6.0 81 1020.4 16.8 N 18.3 0.0 1.4
11:30 9.1 6.0 81 1020.4 12.1 NW 18.3 0.0 1.4
11:31 9.1 6.0 81 1020.4 12.1 NW 18.3 0.0 1.4
11:32 9.1 6.0 81 1020.2 19.7 W 19.7 0.0 1.4
11:33 9.1 6.0 81 1020.3 19.7 W 19.7 0.0 1.4
11:35 9.1 6.0 81 1020.5 15.9 NW 19.7 0.0 1.4
11:36 9.1 6.0 81 1020.4 18.3 WNW 19.7 0.0 1.4
11:37 9.1 6.0 81 1020.2 17.4 N 19.7 0.0 1.4
11:38 9.1 6.0 81 1020.4 15.9 NW 19.7 0.0 1.4
11:39 9.1 6.0 81 1020.4 14.5 NE 19.7 0.0 1.4
11:40 9.1 6.0 81 1020.4 18.3 NW 19.7 0.0 1.4
11:41 9.1 5.8 80 1020.3 19.7 W 19.7 0.0 1.4
11:42 9.1 5.8 80 1020.4 15.2 NW 19.7 0.0 1.4
11:43 9.1 5.8 80 1020.5 11.4 NW 19.7 0.0 1.4
11:44 9.1 5.8 80 1020.6 16.8 SW 19.7 0.0 1.4
11:45 9.1 5.8 80 1020.5 16.8 ESE 19.7 0.0 1.4
11:46 9.1 5.8 80 1020.2 14.5 W 19.7 0.0 1.4
11:47 9.1 5.8 80 1020.5 19.0 E 19.7 0.0 1.4
11:48 9.1 5.8 80 1020.3 19.0 W 19.7 0.0 1.4
11:49 9.1 5.8 80 1020.6 18.3 SW 19.7 0.0 1.4
11:50 9.2 5.9 80 1020.3 13.6 NW 19.7 0.0 1.4
11:52 9.2 5.9 80 1020.4 18.3 NW 19.0 0.0 1.4
11:53 9.2 5.9 80 1020.4 19.0 NW 19.0 0.0 1.4
11:54 9.2 5.9 80 1020.4 17.4 NW 19.0 0.0 1.4
11:55 9.2 5.9 80 1020.6 17.4 W 19.0 0.0 1.4
11:56 9.2 5.8 79 1020.6 15.9 NW 19.0 0.0 1.4
11:57 9.2 5.8 79 1020.4 15.2 N 19.0 0.0 1.4
11:58 9.2 5.8 79 1020.5 12.1 NW 19.0 0.0 1.4
11:59 9.2 5.8 79 1020.4 20.6 N 20.6 0.0 1.4
12:00 9.2 5.8 79 1020.6 20.6 NNE 20.6 0.0 1.4
12:01 9.2 5.8 79 1020.7 20.6 NNE 20.6 0.0 1.4
12:02 9.2 5.8 79 1020.6 20.6 NNE 20.6 0.0 1.4
12:03 9.2 5.8 79 1020.5 20.6 NNE 20.6 0.0 1.4
12:04 9.2 5.8 79 1020.6 20.6 NNE 20.6 0.0 1.4
12:05 9.2 5.8 79 1020.6 20.6 NNE 20.6 0.0 1.4
12:06 9.1 5.5 78 1020.4 13.6 NW 20.6 0.0 1.4
12:07 9.1 5.5 78 1020.5 15.2 N 20.6 0.0 1.4
12:08 9.1 5.5 78 1020.5 17.4 NW 20.6 0.0 1.4
12:09 9.1 5.5 78 1020.6 13.6 NW 20.6 0.0 1.4
12:10 9.1 5.5 78 1020.5 13.6 SW 20.6 0.0 1.4
12:11 9.1 5.5 78 1020.4 19.0 N 20.6 0.0 1.4
12:12 9.1 5.5 78 1020.4 18.3 W 20.6 0.0 1.4
12:13 9.1 5.5 78 1020.5 15.9 W 20.6 0.0 1.4
12:14 9.1 5.5 78 1020.4 13.0 NNW 20.6 0.0 1.4
12:15 9.1 5.5 78 1020.3 20.6 NW 20.6 0.0 1.4
12:16 9.2 5.6 78 1020.6 20.6 N 20.6 0.0 1.4
12:17 9.2 5.6 78 1020.5 22.8 NW 22.8 0.0 1.4
12:18 9.2 5.4 77 1020.5 21.3 NW 22.8 0.0 1.4
12:19 9.2 5.4 77 1020.6 16.8 NW 22.8 0.0 1.4
12:20 9.2 5.4 77 1020.4 15.2 W 22.8 0.0 1.4
12:21 9.2 5.4 77 1020.5 14.5 NW 22.8 0.0 1.4
12:22 9.2 5.2 76 1020.6 12.1 NW 22.8 0.0 1.4
12:23 9.2 5.2 76 1020.3 19.7 N 22.8 0.0 1.4
12:24 9.2 5.2 76 1020.6 14.5 N 22.8 0.0 1.4
12:25 9.2 5.2 76 1020.4 13.0 NW 22.8 0.0 1.4
12:26 9.2 5.2 76 1020.5 19.7 NW 22.8 0.0 1.4
12:27 9.2 5.2 76 1020.4 13.6 NW 22.8 0.0 1.4
12:28 9.2 5.2 76 1020.2 15.2 W 21.3 0.0 1.4
12:29 9.2 5.2 76 1020.3 15.9 NW 19.7 0.0 1.4
12:30 9.2 5.2 76 1020.4 18.3 ENE 19.7 0.0 1.4
12:31 9.2 5.2 76 1020.4 17.4 NW 19.7 0.0 1.4
12:32 9.2 5.2 76 1020.2 17.4 N 19.7 0.0 1.4
12:33 9.3 5.3 76 1020.4 16.8 NW 19.7 0.0 1.4
12:34 9.3 5.3 76 1020.3 22.1 NW 22.1 0.0 1.4
12:36 9.4 5.4 76 1020.4 15.2 W 22.1 0.0 1.4
12:37 9.4 5.4 76 1020.3 16.8 NW 22.1 0.0 1.4
12:38 9.4 5.4 76 1020.1 19.0 NW 22.1 0.0 1.4
12:39 9.4 5.4 76 1020.1 19.0 W 22.1 0.0 1.4
12:40 9.3 5.1 75 1020.3 19.0 W 22.1 0.0 1.4
12:41 9.3 5.1 75 1020.3 17.4 W 22.1 0.0 1.4
12:42 9.4 5.2 75 1020.3 13.0 WNW 22.1 0.0 1.4
12:43 9.4 5.2 75 1020.6 19.7 W 22.1 0.0 1.4
12:44 9.4 5.2 75 1020.4 15.9 NW 22.1 0.0 1.4
12:45 9.4 5.2 75 1020.5 20.6 W 20.6 0.0 1.4
12:46 9.4 5.2 75 1020.4 18.3 W 20.6 0.0 1.4
12:47 9.4 5.2 75 1020.6 19.7 NW 20.6 0.0 1.4
12:48 9.4 5.2 75 1020.4 19.7 NW 20.6 0.0 1.4
12:49 9.3 5.1 75 1020.5 18.3 NW 20.6 0.0 1.4
12:50 9.3 5.1 75 1020.7 18.3 NW 20.6 0.0 1.4
12:52 9.3 5.1 75 1020.6 22.8 W 22.8 0.0 1.4
12:53 9.3 5.1 75 1020.7 21.3 NW 22.8 0.0 1.4
12:54 9.3 5.1 75 1020.5 21.3 NW 22.8 0.0 1.4
12:55 9.3 5.1 75 1020.5 19.0 NW 22.8 0.0 1.4
12:56 9.2 5.0 75 1020.7 16.8 NW 22.8 0.0 1.4
12:57 9.2 5.0 75 1020.7 17.4 W 22.8 0.0 1.4
12:58 9.2 5.0 75 1020.7 17.4 N 22.8 0.0 1.4
12:59 9.2 5.0 75 1020.8 21.3 W 22.8 0.0 1.4
13:00 9.2 5.0 75 1020.9 18.3 SW 22.8 0.0 1.4
13:01 9.2 5.0 75 1020.9 18.3 SW 22.8 0.0 1.4
13:02 9.2 5.0 75 1020.8 18.3 SW 22.8 0.0 1.4
13:03 9.2 5.0 75 1020.8 18.3 SW 21.3 0.0 1.4
13:04 9.2 5.0 75 1020.8 18.3 SW 21.3 0.0 1.4
13:05 9.2 5.0 75 1020.9 18.3 SW 21.3 0.0 1.4
13:07 9.2 5.0 75 1021.1 18.3 SW 21.3 0.0 1.4
13:08 9.2 5.0 75 1020.8 15.9 SW 21.3 0.0 1.4
13:09 9.2 5.0 75 1021.1 15.9 WSW 19.0 0.0 1.4
13:10 9.2 5.0 75 1021.1 13.6 E 19.0 0.0 1.4
13:11 9.2 5.0 75 1021.1 18.3 NW 19.0 0.0 1.4
13:12 9.2 5.0 75 1021.0 19.7 NW 19.7 0.0 1.4
13:13 9.2 5.0 75 1020.8 19.7 NW 19.7 0.0 1.4
13:14 9.2 5.0 75 1020.6 19.7 NW 19.7 0.0 1.4
13:15 9.2 5.0 75 1021.0 19.7 NW 19.7 0.0 1.4
13:16 9.2 5.0 75 1020.9 17.4 NW 19.7 0.0 1.4
13:17 9.2 5.0 75 1021.1 19.7 NW 19.7 0.0 1.4
13:18 9.2 5.0 75 1021.1 20.6 NW 22.1 0.0 1.4
13:19 9.2 5.0 75 1021.1 19.0 SW 22.1 0.0 1.4
13:20 9.2 5.0 75 1021.0 19.0 NW 22.1 0.0 1.4
13:21 9.2 5.0 75 1021.0 17.4 SW 22.1 0.0 1.4
13:22 9.1 4.9 75 1021.1 15.2 NE 22.1 0.0 1.4
13:23 9.1 4.9 75 1021.0 18.3 NW 22.1 0.0 1.4
13:25 9.0 4.8 75 1021.1 17.4 NW 22.1 0.0 1.4
13:26 9.0 4.8 75 1021.2 19.0 NE 22.1 0.0 1.4
13:27 9.0 4.8 75 1021.2 19.0 NW 22.1 0.0 1.4
13:28 9.1 4.9 75 1021.3 13.6 W 21.3 0.0 1.4
13:29 9.1 4.9 75 1021.0 17.4 NW 21.3 0.0 1.4
13:30 9.2 5.0 75 1021.4 17.4 NW 21.3 0.0 1.4
13:31 9.2 5.0 75 1021.2 18.3 NW 21.3 0.0 1.4
13:32 9.2 5.0 75 1021.0 18.3 NW 21.3 0.0 1.4
13:33 9.3 5.1 75 1021.1 17.4 NW 19.0 0.0 1.4
13:34 9.4 5.0 74 1021.2 19.0 NW 19.0 0.0 1.4
13:35 9.4 5.0 74 1021.3 19.0 NW 19.0 0.0 1.4
13:36 9.5 5.1 74 1021.4 19.7 N 19.7 0.0 1.4
13:37 9.5 5.1 74 1021.2 15.9 W 19.7 0.0 1.4
13:38 9.5 5.1 74 1021.1 15.9 S 19.7 0.0 1.4
13:39 9.4 5.0 74 1020.8 15.9 NW 19.7 0.0 1.4
13:41 9.4 5.0 74 1021.2 16.8 NW 19.7 0.0 1.4
13:42 9.4 5.0 74 1021.2 18.3 W 19.7 0.0 1.4
13:43 9.4 5.0 74 1021.2 15.2 N 19.7 0.0 1.4
13:44 9.4 4.8 73 1021.2 23.5 W 23.5 0.0 1.4
13:45 9.4 4.8 73 1021.0 23.5 W 23.5 0.0 1.4
13:46 9.4 4.8 73 1021.3 17.4 NW 23.5 0.0 1.4
13:47 9.4 5.0 74 1021.2 19.7 NW 23.5 0.0 1.4
13:48 9.4 5.0 74 1021.2 18.3 W 23.5 0.0 1.4
13:49 9.5 5.1 74 1021.0 18.3 NW 23.5 0.0 1.4
13:50 9.5 5.1 74 1021.3 13.6 N 23.5 0.0 1.4
13:51 9.5 5.1 74 1021.2 16.8 NW 23.5 0.0 1.4
13:52 9.5 5.1 74 1021.2 13.6 NW 23.5 0.0 1.4
13:53 9.5 5.1 74 1021.2 19.7 NW 23.5 0.0 1.4
13:54 9.5 5.1 74 1021.5 20.6 N 23.5 0.0 1.4
13:56 9.4 5.0 74 1021.3 17.4 N 20.6 0.0 1.4
13:57 9.4 5.0 74 1021.2 22.1 NW 22.1 0.0 1.4
13:58 9.4 5.0 74 1021.1 22.1 NW 22.1 0.0 1.4
13:59 9.3 4.9 74 1021.3 19.0 NW 22.1 0.0 1.4
14:00 9.3 4.9 74 1021.3 19.0 W 22.1 0.0 1.4
14:01 9.3 4.9 74 1021.5 19.0 W 22.1 0.0 1.4
14:02 9.3 4.9 74 1021.5 19.0 W 22.1 0.0 1.4
14:03 9.2 4.8 74 1021.1 15.2 NW 22.1 0.0 1.4
14:04 9.2 4.8 74 1021.3 18.3 W 22.1 0.0 1.4
14:05 9.2 4.8 74 1021.2 15.2 NW 22.1 0.0 1.4
14:06 9.2 4.8 74 1021.2 15.9 NW 22.1 0.0 1.4
14:07 9.1 4.7 74 1021.3 19.7 NW 22.1 0.0 1.4
14:08 9.1 4.7 74 1021.0 20.6 NW 22.1 0.0 1.4
14:09 9.1 4.7 74 1021.1 20.6 NE 21.3 0.0 1.4
14:11 9.0 4.6 74 1021.3 16.8 N 21.3 0.0 1.4
14:12 9.0 4.6 74 1021.1 14.5 NW 21.3 0.0 1.4
14:13 9.0 4.6 74 1021.2 18.3 NW 20.6 0.0 1.4
14:14 9.0 4.4 73 1021.4 20.6 N 20.6 0.0 1.4
14:15 9.0 4.4 73 1021.2 20.6 N 20.6 0.0 1.4
14:16 9.0 4.4 73 1021.2 19.0 N 20.6 0.0 1.4
14:17 9.0 4.4 73 1021.2 19.0 N 20.6 0.0 1.4
14:18 8.9 4.3 73 1021.1 22.1 NW 22.1 0.0 1.4
14:19 8.9 4.3 73 1021.3 21.3 W 22.1 0.0 1.4
14:20 8.9 4.3 73 1021.3 19.0 NW 22.1 0.0 1.4
14:21 8.9 4.3 73 1021.3 19.0 W 22.1 0.0 1.4
14:22 8.9 4.3 73 1021.4 14.5 SE 22.1 0.0 1.4
14:23 8.9 4.3 73 1021.4 19.0 NW 22.1 0.0 1.4
14:24 8.9 4.3 73 1021.2 19.0 W 22.1 0.0 1.4
14:26 8.9 4.3 73 1021.2 17.4 W 22.1 0.0 1.4
14:27 8.9 4.3 73 1021.0 17.4 SW 22.1 0.0 1.4
14:28 9.0 4.4 73 1021.2 13.6 WNW 22.1 0.0 1.4
14:29 9.0 4.4 73 1021.5 13.0 NW 19.0 0.0 1.4
14:30 9.0 4.4 73 1021.3 12.1 W 19.0 0.0 1.4
14:31 9.0 4.4 73 1021.0 16.8 NW 19.0 0.0 1.4
14:32 9.0 4.4 73 1021.3 18.3 S 19.0 0.0 1.4
14:33 9.0 4.4 73 1021.5 18.3 NW 19.0 0.0 1.4
14:34 9.0 4.4 73 1021.2 20.6 W 20.6 0.0 1.4
14:35 9.0 4.4 73 1021.4 13.6 N 20.6 0.0 1.4
14:36 9.0 4.4 73 1021.3 14.5 WNW 20.6 0.0 1.4
14:37 9.0 4.4 73 1021.2 14.5 NW 20.6 0.0 1.4
14:38 9.0 4.4 73 1021.3 14.5 N 20.6 0.0 1.4
14:39 9.0 4.4 73 1021.6 12.1 NW 20.6 0.0 1.4
14:41 8.9 4.3 73 1021.3 12.1 N 20.6 0.0 1.4
14:42 8.9 4.3 73 1021.3 11.4 WNW 20.6 0.0 1.4
14:43 8.9 4.3 73 1021.2 15.9 N 20.6 0.0 1.4
14:44 8.9 4.3 73 1021.4 13.6 NW 20.6 0.0 1.4
14:45 8.9 4.3 73 1021.5 13.6 NW 17.4 0.0 1.4
14:46 8.9 4.3 73 1021.6 13.6 NE 17.4 0.0 1.4
14:47 8.9 4.3 73 1021.2 14.5 W 17.4 0.0 1.4
14:48 8.9 4.3 73 1021.4 16.8 W 17.4 0.0 1.4
14:49 8.8 4.2 73 1021.5 15.9 NW 17.4 0.0 1.4
14:50 8.8 4.2 73 1021.4 15.9 NE 17.4 0.0 1.4
14:51 8.8 4.2 73 1021.4 13.6 N 17.4 0.0 1.4
14:52 8.8 4.2 73 1021.4 13.6 NE 17.4 0.0 1.4
14:53 8.8 4.2 73 1021.3 10.7 W 17.4 0.0 1.4
14:54 8.8 4.2 73 1021.3 15.9 NW 17.4 0.0 1.4
14:56 8.7 4.1 73 1021.6 13.6 W 16.8 0.0 1.4
14:57 8.7 4.1 73 1021.5 10.7 N 16.8 0.0 1.4
14:58 8.7 4.1 73 1021.4 15.2 NW 15.9 0.0 1.4
14:59 8.7 4.1 73 1021.6 14.5 NW 15.9 0.0 1.4
15:00 8.7 4.1 73 1021.8 19.0 NW 19.0 0.0 1.4
15:01 8.7 4.1 73 1021.7 19.0 NW 19.0 0.0 1.4
15:02 8.7 4.1 73 1021.7 19.0 NW 19.0 0.0 1.4
15:03 8.7 4.1 73 1021.4 19.0 NW 19.0 0.0 1.4
15:04 8.7 4.1 73 1021.5 19.0 NW 19.0 0.0 1.4
15:05 8.7 4.1 73 1021.9 19.0 NW 19.0 0.0 1.4
15:06 8.7 4.3 74 1021.5 13.0 NW 19.0 0.0 1.4
15:07 8.7 4.3 74 1021.7 9.2 W 19.0 0.0 1.4
15:08 8.7 4.3 74 1021.6 9.2 NW 19.0 0.0 1.4
15:09 8.8 4.4 74 1021.6 9.8 NW 19.0 0.0 1.4
15:10 8.8 4.4 74 1021.6 13.0 NW 19.0 0.0 1.4
15:12 8.7 4.3 74 1021.8 20.6 W 20.6 0.0 1.4
15:13 8.7 4.1 73 1021.8 15.9 N 20.6 0.0 1.4
15:15 8.7 4.1 73 1021.8 22.1 NW 22.1 0.0 1.4
15:16 8.6 4.0 73 1022.0 13.6 W 22.1 0.0 1.4
15:17 8.6 4.0 73 1021.9 15.9 N 22.1 0.0 1.4
15:18 8.6 4.0 73 1021.9 13.0 NW 22.1 0.0 1.4
15:19 8.6 4.0 73 1022.0 9.2 N 22.1 0.0 1.4
15:20 8.5 3.9 73 1022.1 10.7 NW 22.1 0.0 1.4
15:21 8.5 3.7 72 1021.9 12.1 N 22.1 0.0 1.4
15:22 8.5 3.7 72 1021.9 12.1 N 22.1 0.0 1.4
15:23 8.5 3.7 72 1022.1 12.1 NW 22.1 0.0 1.4
15:24 8.5 3.7 72 1022.1 13.0 NW 22.1 0.0 1.4
15:25 8.5 3.7 72 1022.1 15.2 NW 22.1 0.0 1.4
15:26 8.4 3.6 72 1022.1 13.0 W 22.1 0.0 1.4
15:27 8.4 3.6 72 1022.1 15.2 NW 15.9 0.0 1.4
15:28 8.4 3.6 72 1022.1 15.2 NW 15.2 0.0 1.4
15:29 8.4 3.6 72 1022.2 13.6 N 15.2 0.0 1.4
15:31 8.3 3.7 73 1022.1 15.2 W 17.4 0.0 1.4
15:32 8.3 3.7 73 1022.5 15.2 WNW 17.4 0.0 1.4
15:33 8.3 3.7 73 1022.3 17.4 WNW 17.4 0.0 1.4
15:34 8.3 3.6 72 1022.2 15.9 NW 17.4 0.0 1.4
15:35 8.3 3.6 72 1022.3 15.9 SW 17.4 0.0 1.4
15:36 8.2 3.5 72 1022.4 19.0 W 19.0 0.0 1.4
15:37 8.2 3.5 72 1022.4 19.0 W 19.0 0.0 1.4
15:38 8.2 3.5 72 1022.2 15.2 NW 19.0 0.0 1.4
15:39 8.2 3.5 72 1022.6 14.5 W 19.0 0.0 1.4
15:40 8.2 3.5 72 1022.4 12.1 NW 19.0 0.0 1.4
15:41 8.2 3.5 72 1022.5 19.0 WNW 19.0 0.0 1.4
15:42 8.2 3.5 72 1022.5 15.9 NW 19.0 0.0 1.4
15:43 8.1 3.4 72 1022.7 14.5 NW 19.0 0.0 1.4
15:44 8.1 3.4 72 1022.6 19.7 N 19.7 0.0 1.4
15:45 8.1 3.4 72 1022.7 16.8 NW 19.7 0.0 1.4
15:46 8.1 3.4 72 1022.5 18.3 N 19.7 0.0 1.4
15:47 8.1 3.4 72 1022.5 18.3 NW 19.7 0.0 1.4
15:48 8.1 3.4 72 1022.7 19.0 N 19.7 0.0 1.4
15:49 8.1 3.4 72 1022.6 15.2 NW 19.7 0.0 1.4
15:50 8.1 3.4 72 1022.6 11.4 N 19.7 0.0 1.4
15:52 8.1 3.4 72 1022.7 16.8 NW 19.7 0.0 1.4
15:53 8.1 3.4 72 1022.8 19.0 W 19.7 0.0 1.4
15:54 8.1 3.4 72 1022.8 17.4 NW 19.0 0.0 1.4
15:55 8.1 3.4 72 1023.0 13.6 NW 19.0 0.0 1.4
15:56 8.1 3.4 72 1022.7 13.0 NW 19.0 0.0 1.4
15:57 8.1 3.4 72 1022.7 13.0 NW 19.0 0.0 1.4
15:58 8.0 3.3 72 1022.9 15.9 N 19.0 0.0 1.4
15:59 8.0 3.3 72 1022.8 15.9 SW 19.0 0.0 1.4
16:00 8.0 3.3 72 1022.9 12.1 NE 19.0 0.0 1.4
16:01 8.0 3.3 72 1023.0 12.1 NE 19.0 0.0 1.4
16:02 8.0 3.3 72 1022.8 12.1 NE 19.0 0.0 1.4
16:03 8.0 3.3 72 1022.8 12.1 NE 19.0 0.0 1.4
16:04 8.0 3.3 72 1022.6 12.1 NE 17.4 0.0 1.4
16:06 8.0 3.3 72 1023.0 12.1 NE 15.9 0.0 1.4
16:07 8.0 3.3 72 1023.0 12.1 NE 15.9 0.0 1.4
16:08 8.0 3.3 72 1023.0 12.1 NE 15.9 0.0 1.4
16:09 8.0 3.3 72 1023.0 16.8 NW 16.8 0.0 1.4
16:10 8.0 3.3 72 1023.1 15.2 NW 16.8 0.0 1.4
16:11 8.0 3.3 72 1023.0 12.1 NW 16.8 0.0 1.4
16:12 8.0 3.3 72 1023.0 13.6 NW 16.8 0.0 1.4
16:13 8.0 3.3 72 1022.9 15.2 WNW 16.8 0.0 1.4
16:14 8.0 3.3 72 1023.1 15.2 NW 16.8 0.0 1.4
16:15 7.9 3.2 72 1023.1 16.8 NW 16.8 0.0 1.4
16:16 7.9 3.2 72 1022.9 11.4 NW 16.8 0.0 1.4
16:17 7.9 3.2 72 1023.1 11.4 NW 16.8 0.0 1.4
16:18 7.9 3.2 72 1022.9 12.1 N 16.8 0.0 1.4
16:19 7.9 3.2 72 1022.9 22.1 W 22.1 0.0 1.4
16:21 7.9 3.0 71 1022.9 14.5 NW 22.1 0.0 1.4
16:22 7.9 3.0 71 1023.0 13.0 NW 22.1 0.0 1.4
16:23 7.9 3.0 71 1023.0 14.5 NW 22.1 0.0 1.4
16:24 7.9 3.0 71 1022.9 14.5 NW 22.1 0.0 1.4
16:25 7.9 3.0 71 1023.2 11.4 N 22.1 0.0 1.4
16:26 7.9 3.0 71 1023.2 10.7 NW 22.1 0.0 1.4
16:27 7.9 3.0 71 1023.0 7.6 SW 22.1 0.0 1.4
16:28 7.9 3.0 71 1023.1 14.5 W 22.1 0.0 1.4
16:29 7.9 3.0 71 1023.2 15.2 NW 22.1 0.0 1.4
16:30 7.9 3.2 72 1023.2 12.1 NW 15.9 0.0 1.4
16:31 7.9 3.2 72 1023.1 12.1 S 15.2 0.0 1.4
16:32 7.9 3.2 72 1023.0 16.8 W 16.8 0.0 1.4
16:33 7.9 3.2 72 1023.2 16.8 N 16.8 0.0 1.4
16:34 7.9 3.2 72 1023.0 10.7 N 16.8 0.0 1.4
16:36 7.9 3.2 72 1023.1 14.5 W 16.8 0.0 1.4
16:37 7.9 3.2 72 1023.0 13.0 NW 16.8 0.0 1.4
16:38 7.9 3.2 72 1023.3 13.6 NW 16.8 0.0 1.4
16:39 7.9 3.2 72 1023.2 13.6 NW 16.8 0.0 1.4
16:40 7.9 3.2 72 1023.1 16.8 NW 16.8 0.0 1.4
16:41 7.9 3.2 72 1023.1 16.8 NW 16.8 0.0 1.4
16:42 7.9 3.2 72 1023.0 10.7 NW 16.8 0.0 1.4
16:43 7.9 3.2 72 1023.0 17.4 NW 17.4 0.0 1.4
16:44 7.9 3.2 72 1023.1 12.1 N 17.4 0.0 1.4
16:45 7.9 3.2 72 1023.1 15.2 NE 17.4 0.0 1.4
16:46 7.9 3.2 72 1023.0 18.3 NW 18.3 0.0 1.4
16:47 7.9 3.2 72 1023.2 10.7 NW 18.3 0.0 1.4
16:48 7.9 3.2 72 1023.1 9.2 SW 18.3 0.0 1.4
16:49 7.9 3.2 72 1023.4 15.2 NW 18.3 0.0 1.4
16:51 7.9 3.2 72 1023.3 15.9 NW 18.3 0.0 1.4
16:52 7.9 3.2 72 1023.2 13.6 NW 18.3 0.0 1.4
16:53 7.9 3.2 72 1023.3 17.4 N 18.3 0.0 1.4
16:54 7.9 3.2 72 1023.2 17.4 N 18.3 0.0 1.4
16:55 7.9 3.2 72 1023.3 11.4 NW 18.3 0.0 1.4
16:56 7.9 3.2 72 1023.2 11.4 NW 18.3 0.0 1.4
16:57 7.9 3.2 72 1023.3 16.8 NW 17.4 0.0 1.4
16:58 7.9 3.2 72 1023.2 12.1 N 17.4 0.0 1.4
16:59 7.9 3.2 72 1023.4 12.1 N 17.4 0.0 1.4
17:00 7.9 3.4 73 1023.3 11.4 NE 17.4 0.0 1.4
17:01 7.9 3.4 73 1023.4 11.4 NE 17.4 0.0 1.4
17:02 7.9 3.4 73 1023.3 11.4 NE 17.4 0.0 1.4
17:03 7.9 3.4 73 1023.4 11.4 NE 17.4 0.0 1.4
17:05 7.9 3.4 73 1023.2 11.4 NE 16.8 0.0 1.4
17:06 7.9 3.2 72 1023.5 9.8 NE 16.8 0.0 1.4
17:07 7.9 3.2 72 1023.4 14.5 NW 16.8 0.0 1.4
17:08 7.9 3.2 72 1023.3 12.1 NW 14.5 0.0 1.4
17:09 7.9 3.2 72 1023.5 9.2 NE 14.5 0.0 1.4
17:10 7.9 3.2 72 1023.5 11.4 NW 14.5 0.0 1.4
17:11 7.9 3.2 72 1023.4 9.2 NW 14.5 0.0 1.4
17:12 7.9 3.2 72 1023.4 12.1 NW 14.5 0.0 1.4
17:13 7.9 3.2 72 1023.4 11.4 E 14.5 0.0 1.4
17:14 7.9 3.2 72 1023.4 13.0 NW 14.5 0.0 1.4
17:15 7.9 3.2 72 1023.5 10.7 NW 14.5 0.0 1.4
17:16 7.9 3.2 72 1023.3 15.2 S 15.2 0.0 1.4
17:17 7.9 3.2 72 1023.6 10.7 NW 15.2 0.0 1.4
17:18 7.9 3.2 72 1023.5 11.4 N 15.2 0.0 1.4
17:19 7.9 3.2 72 1023.5 13.6 NW 15.2 0.0 1.4
17:20 7.9 3.2 72 1023.5 7.6 NW 15.2 0.0 1.4
17:21 7.9 3.2 72 1023.3 13.6 N 15.2 0.0 1.4
17:22 7.9 3.2 72 1023.6 13.6 NW 15.2 0.0 1.4
17:23 7.9 3.2 72 1023.6 12.1 N 15.2 0.0 1.4
17:24 7.9 3.2 72 1023.6 11.4 N 15.2 0.0 1.4
17:25 7.9 3.2 72 1023.4 9.8 NW 15.2 0.0 1.4
17:26 7.9 3.2 72 1023.7 13.0 N 15.2 0.0 1.4
17:28 7.9 3.2 72 1023.3 13.6 SW 14.5 0.0 1.4
17:29 7.9 3.2 72 1023.5 13.6 N 14.5 0.0 1.4
17:30 7.9 3.2 72 1023.8 15.2 NW 15.2 0.0 1.4
17:31 7.9 3.2 72 1023.5 8.3 E 15.2 0.0 1.4
17:32 7.9 3.2 72 1023.6 13.6 W 15.2 0.0 1.4
17:33 7.9 3.2 72 1023.6 13.6 W 15.2 0.0 1.4
17:34 7.9 3.2 72 1023.5 8.3 N 15.2 0.0 1.4
17:35 7.9 3.2 72 1023.4 16.8 NE 16.8 0.0 1.4
17:36 7.9 3.2 72 1023.4 16.8 NE 16.8 0.0 1.4
17:37 7.9 3.2 72 1023.5 16.8 S 16.8 0.0 1.4
17:38 7.9 3.2 72 1023.4 16.8 NE 16.8 0.0 1.4
17:39 7.9 3.2 72 1023.4 16.8 W 16.8 0.0 1.4
17:40 7.9 3.2 72 1023.6 12.1 SW 16.8 0.0 1.4
17:42 7.9 3.2 72 1023.5 17.4 N 17.4 0.0 1.4
17:43 7.9 3.2 72 1023.6 11.4 NW 17.4 0.0 1.4
17:44 7.9 3.2 72 1023.4 7.6 W 17.4 0.0 1.4
17:45 7.9 3.2 72 1023.5 9.8 W 17.4 0.0 1.4
17:46 7.9 3.2 72 1023.5 7.6 W 17.4 0.0 1.4
17:47 7.9 3.2 72 1023.6 11.4 NW 17.4 0.0 1.4
17:48 7.9 3.2 72 1023.7 11.4 NW 17.4 0.0 1.4
17:49 7.9 3.2 72 1023.7 7.6 NW 17.4 0.0 1.4
17:50 7.9 3.2 72 1023.5 14.5 NW 17.4 0.0 1.4
17:51 7.9 3.2 72 1023.9 17.4 NE 17.4 0.0 1.4
17:52 7.9 3.2 72 1023.6 13.0 N 17.4 0.0 1.4
17:53 7.9 3.2 72 1023.6 12.1 N 17.4 0.0 1.4
17:54 8.0 3.3 72 1023.7 7.6 N 17.4 0.0 1.4
17:56 8.0 3.3 72 1023.5 9.8 NW 17.4 0.0 1.4
17:57 8.0 3.3 72 1023.6 9.2 N 17.4 0.0 1.4
17:58 8.0 3.3 72 1023.6 6.9 NW 17.4 0.0 1.4
17:59 8.0 3.3 72 1023.5 7.6 N 17.4 0.0 1.4
18:00 8.0 3.3 72 1023.7 10.7 NW 17.4 0.0 1.4
18:01 8.0 3.3 72 1023.7 10.7 NW 17.4 0.0 1.4
18:02 8.0 3.3 72 1023.7 10.7 NW 15.2 0.0 1.4
18:03 8.0 3.3 72 1023.5 10.7 WSW 15.2 0.0 1.4
18:04 8.0 3.3 72 1023.7 14.5 NW 15.2 0.0 1.4
18:05 8.0 3.3 72 1023.6 14.5 W 15.2 0.0 1.4
18:06 8.0 3.3 72 1023.8 11.4 N 15.2 0.0 1.4
18:07 8.0 3.3 72 1023.9 13.0 SW 14.5 0.0 1.4
18:08 8.0 3.3 72 1023.8 13.0 NE 14.5 0.0 1.4
18:09 8.0 3.3 72 1023.7 6.9 N 19.7 0.0 1.4
18:10 8.0 3.3 72 1023.6 7.6 E 19.7 0.0 1.4
18:11 8.0 3.3 72 1023.8 9.2 NW 19.7 0.0 1.4
18:12 8.0 3.3 72 1023.8 9.2 SW 19.7 0.0 1.4
18:13 8.0 3.3 72 1023.8 12.1 NW 19.7 0.0 1.4
18:14 8.0 3.3 72 1023.9 13.6 N 19.7 0.0 1.4
18:15 8.0 3.3 72 1023.9 6.9 SW 19.7 0.0 1.4
18:16 8.0 3.3 72 1023.7 5.4 N 19.7 0.0 1.4
18:17 8.0 3.3 72 1023.7 5.4 N 19.7 0.0 1.4
18:18 8.0 3.3 72 1023.7 13.0 N 19.7 0.0 1.4
18:19 8.0 3.3 72 1023.8 8.3 NW 19.7 0.0 1.4
18:20 8.0 3.3 72 1023.9 8.3 E 13.6 0.0 1.4
18:21 8.0 3.3 72 1023.7 6.9 NW 13.6 0.0 1.4
18:22 8.0 3.3 72 1023.6 6.9 NE 13.6 0.0 1.4
18:23 8.0 3.3 72 1023.5 7.6 NE 13.6 0.0 1.4
18:25 8.0 3.3 72 1023.8 8.3 N 13.0 0.0 1.4
18:26 8.0 3.3 72 1023.5 9.8 W 13.0 0.0 1.4
18:27 8.0 3.3 72 1023.7 8.3 W 13.0 0.0 1.4
18:28 8.0 3.3 72 1023.9 6.9 NW 14.5 0.0 1.4
18:29 8.0 3.3 72 1023.9 6.0 W 14.5 0.0 1.4
18:30 8.0 3.3 72 1023.9 10.7 N 14.5 0.0 1.4
18:31 8.0 3.3 72 1024.0 8.3 NW 14.5 0.0 1.4
18:32 8.0 3.3 72 1023.7 8.3 N 14.5 0.0 1.4
18:33 8.0 3.3 72 1023.8 9.8 NW 14.5 0.0 1.4
18:34 8.0 3.3 72 1023.8 9.2 S 14.5 0.0 1.4
18:35 8.0 3.3 72 1023.8 13.0 S 14.5 0.0 1.4
18:36 8.0 3.3 72 1023.7 7.6 NW 14.5 0.0 1.4
18:37 8.0 3.3 72 1023.7 15.2 NW 15.2 0.0 1.4
18:38 8.0 3.3 72 1024.0 6.0 W 15.2 0.0 1.4
18:39 8.0 3.3 72 1024.0 6.9 N 15.2 0.0 1.4
18:41 8.0 3.3 72 1023.8 6.9 N 15.2 0.0 1.4
18:42 8.0 3.3 72 1023.8 6.9 N 15.2 0.0 1.4
18:43 8.0 3.3 72 1024.0 5.4 E 15.2 0.0 1.4
18:44 8.0 3.3 72 1024.2 8.3 N 15.2 0.0 1.4
18:45 8.0 3.3 72 1023.8 11.4 NE 15.2 0.0 1.4
18:46 8.0 3.3 72 1023.9 11.4 NW 15.2 0.0 1.4
18:47 7.9 3.2 72 1024.0 7.6 NE 11.4 0.0 1.4
18:48 8.0 3.3 72 1024.2 12.1 S 12.1 0.0 1.4
18:49 8.0 3.3 72 1024.0 9.8 NW 12.1 0.0 1.4
18:50 8.0 3.3 72 1024.0 9.2 NW 12.1 0.0 1.4
18:51 8.0 3.3 72 1024.1 9.8 NW 12.1 0.0 1.4
18:52 7.9 3.2 72 1024.0 9.8 NNW 12.1 0.0 1.4
18:53 7.9 3.2 72 1024.0 8.3 W 12.1 0.0 1.4
18:54 7.9 3.2 72 1024.1 6.0 N 12.1 0.0 1.4
18:56 7.9 3.2 72 1024.0 7.6 NE 12.1 0.0 1.4
18:57 7.9 3.2 72 1024.1 11.4 E 12.1 0.0 1.4
18:58 7.9 3.2 72 1024.0 9.2 W 11.4 0.0 1.4
18:59 7.9 3.2 72 1024.0 6.9 N 11.4 0.0 1.4
19:00 8.0 3.3 72 1024.1 8.3 W 11.4 0.0 1.4
19:01 8.0 3.3 72 1024.2 8.3 W 11.4 0.0 1.4
19:02 8.0 3.3 72 1024.2 8.3 W 11.4 0.0 1.4
19:03 8.0 3.3 72 1024.2 8.3 W 11.4 0.0 1.4
19:04 8.0 3.3 72 1023.9 8.3 W 11.4 0.0 1.4
19:05 8.0 3.3 72 1024.2 8.3 W 11.4 0.0 1.4
19:06 8.0 3.5 73 1024.3 6.0 SW 11.4 0.0 1.4
19:07 8.0 3.5 73 1023.9 6.9 NW 11.4 0.0 1.4
19:08 8.0 3.5 73 1024.1 6.9 NE 9.2 0.0 1.4
19:09 8.0 3.5 73 1024.1 8.3 N 8.3 0.0 1.4
19:10 8.0 3.5 73 1024.2 11.4 NW 11.4 0.0 1.4
19:12 8.0 3.5 73 1024.1 12.1 SW 12.1 0.0 1.4
19:13 8.0 3.5 73 1024.1 9.2 NNE 12.1 0.0 1.4
19:14 8.0 3.5 73 1024.1 9.2 NE 12.1 0.0 1.4
19:15 8.0 3.5 73 1024.2 7.6 N 12.1 0.0 1.4
19:17 8.0 3.5 73 1024.4 12.1 NW 12.1 0.0 1.4
19:18 8.0 3.5 73 1024.3 11.4 NW 12.1 0.0 1.4
19:19 8.0 3.5 73 1024.2 12.1 NW 12.1 0.0 1.4
19:20 8.1 3.6 73 1024.3 5.4 WNW 12.1 0.0 1.4
19:21 8.1 3.6 73 1024.2 8.3 NW 12.1 0.0 1.4
19:22 8.1 3.6 73 1024.4 9.8 W 12.1 0.0 1.4
19:23 8.1 3.6 73 1024.3 8.3 E 12.1 0.0 1.4
19:24 8.1 3.6 73 1024.2 7.6 N 12.1 0.0 1.4
19:25 8.1 3.6 73 1024.3 7.6 NW 12.1 0.0 1.4
19:26 8.1 3.4 72 1024.3 8.3 N 12.1 0.0 1.4
19:27 8.1 3.4 72 1024.5 8.3 NE 12.1 0.0 1.4
19:28 8.1 3.4 72 1024.4 9.8 NW 12.1 0.0 1.4
19:29 8.1 3.4 72 1024.3 9.2 N 12.1 0.0 1.4
19:30 8.1 3.4 72 1024.4 7.6 N 11.4 0.0 1.4
19:31 8.1 3.4 72 1024.4 9.2 NW 11.4 0.0 1.4
19:32 8.1 3.4 72 1024.2 4.5 NE 11.4 0.0 1.4
19:33 8.1 3.4 72 1024.5 7.6 NW 11.4 0.0 1.4
19:35 8.1 3.4 72 1024.5 9.2 N 11.4 0.0 1.4
19:36 8.1 3.4 72 1024.5 8.3 NW 9.8 0.0 1.4
19:37 8.0 3.3 72 1024.2 9.2 NW 9.8 0.0 1.4
19:38 8.0 3.3 72 1024.1 8.3 N 9.2 0.0 1.4
19:39 8.0 3.3 72 1024.4 8.3 E 9.2 0.0 1.4
19:40 8.0 3.3 72 1024.5 4.5 N 9.2 0.0 1.4
19:41 8.0 3.3 72 1024.5 7.6 NE 9.2 0.0 1.4
19:42 8.0 3.3 72 1024.3 7.6 NW 9.2 0.0 1.4
19:43 8.0 3.3 72 1024.6 10.7 S 10.7 0.0 1.4
19:44 8.0 3.3 72 1024.5 4.5 SW 10.7 0.0 1.4
19:45 8.0 3.3 72 1024.3 6.9 NE 10.7 0.0 1.4
19:46 8.0 3.3 72 1024.4 5.4 N 10.7 0.0 1.4
19:47 8.0 3.3 72 1024.4 12.1 NW 12.1 0.0 1.4
19:48 8.0 3.3 72 1024.6 6.0 NE 12.1 0.0 1.4
19:49 8.0 3.3 72 1024.6 3.8 S 12.1 0.0 1.4
19:50 8.0 3.3 72 1024.8 4.5 NW 12.1 0.0 1.4
19:51 8.0 3.5 73 1024.6 5.4 E 12.1 0.0 1.4
19:52 8.0 3.5 73 1024.7 3.8 N 12.1 0.0 1.4
19:53 8.0 3.5 73 1024.7 3.8 N 12.1 0.0 1.4
19:55 8.0 3.5 73 1024.8 4.5 NW 12.1 0.0 1.4
19:56 8.0 3.5 73 1024.8 6.9 WNW 12.1 0.0 1.4
19:57 8.0 3.5 73 1024.7 6.0 NW 6.9 0.0 1.4
19:58 8.0 3.5 73 1024.8 5.4 N 6.9 0.0 1.4
19:59 8.0 3.5 73 1024.7 7.6 N 7.6 0.0 1.4
20:00 8.0 3.5 73 1024.7 9.2 NE 9.2 0.0 1.4
20:01 8.0 3.5 73 1024.7 5.4 N 9.2 0.0 1.4
20:02 8.0 3.5 73 1024.7 5.4 N 9.2 0.0 1.4
20:03 8.0 3.5 73 1024.7 4.5 NW 9.2 0.0 1.4
20:04 8.0 3.5 73 1024.8 4.5 SE 9.2 0.0 1.4
20:05 8.0 3.5 73 1024.7 5.4 E 9.2 0.0 1.4
20:06 8.0 3.5 73 1024.8 9.2 NW 9.2 0.0 1.4
20:07 8.0 3.5 73 1024.6 9.2 N 9.2 0.0 1.4
20:08 8.0 3.5 73 1024.7 6.0 NNE 9.2 0.0 1.4
20:09 8.0 3.3 72 1024.8 6.9 N 9.2 0.0 1.4
20:11 7.9 3.2 72 1024.7 4.5 W 9.2 0.0 1.4
20:12 7.9 3.2 72 1024.9 6.0 W 9.2 0.0 1.4
20:13 7.9 3.2 72 1024.7 6.0 NW 9.2 0.0 1.4
20:14 7.9 3.2 72 1025.0 5.4 NW 9.2 0.0 1.4
20:15 7.9 3.2 72 1024.7 5.4 NW 9.2 0.0 1.4
20:16 7.9 3.2 72 1024.8 7.6 NW 9.2 0.0 1.4
20:17 7.9 3.2 72 1024.8 7.6 NW 9.2 0.0 1.4
20:18 7.9 3.2 72 1024.8 9.8 W 9.8 0.0 1.4
20:19 7.9 3.2 72 1024.9 9.2 NE 9.8 0.0 1.4
20:20 7.9 3.2 72 1024.8 9.8 NW 9.8 0.0 1.4
20:21 7.9 3.2 72 1024.7 6.9 SW 9.8 0.0 1.4
20:22 7.9 3.2 72 1024.7 9.2 NW 9.8 0.0 1.4
20:23 7.9 3.2 72 1025.0 6.0 N 9.8 0.0 1.4
20:25 8.0 3.3 72 1024.9 5.4 NNE 9.8 0.0 1.4
20:26 8.0 3.3 72 1025.0 5.4 N 9.8 0.0 1.4
20:27 8.0 3.3 72 1024.9 9.8 NW 9.8 0.0 1.4
20:28 7.9 3.2 72 1025.1 3.8 WNW 9.8 0.0 1.4
20:29 7.9 3.2 72 1024.9 6.9 NW 9.8 0.0 1.4
20:30 7.9 3.2 72 1025.2 9.8 S 9.8 0.0 1.4
20:31 7.9 3.2 72 1025.1 6.9 NW 9.8 0.0 1.4
20:32 7.9 3.2 72 1025.1 6.0 NW 9.8 0.0 1.4
20:33 7.9 3.2 72 1025.0 4.5 NW 9.8 0.0 1.4
20:34 7.9 3.2 72 1024.9 9.2 SW 9.8 0.0 1.4
20:35 7.9 3.2 72 1025.1 3.8 NE 9.8 0.0 1.4
20:36 7.9 3.2 72 1024.9 10.7 SW 10.7 0.0 1.4
20:37 7.9 3.2 72 1025.2 10.7 SW 10.7 0.0 1.4
20:38 7.8 3.1 72 1025.1 2.2 S 10.7 0.0 1.4
20:40 7.8 3.1 72 1025.2 7.6 NW 10.7 0.0 1.4
20:41 7.8 3.1 72 1025.1 7.6 NW 10.7 0.0 1.4
20:42 7.8 3.1 72 1025.2 6.9 W 10.7 0.0 1.4
20:43 7.8 3.1 72 1025.2 7.6 NW 10.7 0.0 1.4
20:44 7.8 3.1 72 1025.2 5.4 W 10.7 0.0 1.4
20:45 7.8 3.1 72 1025.2 5.4 W 10.7 0.0 1.4
20:46 7.7 3.0 72 1025.2 6.0 NE 10.7 0.0 1.4
20:47 7.7 3.0 72 1025.1 5.4 E 10.7 0.0 1.4
20:48 7.7 3.0 72 1025.2 6.9 SE 7.6 0.0 1.4
20:49 7.7 3.0 72 1025.2 6.0 W 7.6 0.0 1.4
20:50 7.7 3.0 72 1025.3 4.5 W 7.6 0.0 1.4
20:51 7.7 3.0 72 1025.3 9.8 N 9.8 0.0 1.4
20:52 7.7 3.0 72 1025.1 9.8 NW 9.8 0.0 1.4
20:53 7.7 3.0 72 1025.0 3.1 W 9.8 0.0 1.4
20:54 7.7 3.0 72 1025.3 4.5 N 9.8 0.0 1.4
20:55 7.7 3.0 72 1025.1 3.1 W 9.8 0.0 1.4
20:57 7.8 3.1 72 1025.1 3.8 NE 9.8 0.0 1.4
20:58 7.8 3.1 72 1025.1 3.8 NW 9.8 0.0 1.4
20:59 7.8 3.1 72 1025.3 3.1 NW 9.8 0.0 1.4
21:00 7.8 3.1 72 1025.1 2.2 NW 9.8 0.0 1.4
21:01 7.8 3.1 72 1025.2 2.2 NW 9.8 0.0 1.4
21:02 7.8 3.1 72 1025.3 2.2 NW 4.5 0.0 1.4
21:03 7.8 3.1 72 1025.1 2.2 NW 4.5 0.0 1.4
21:04 7.8 3.1 72 1025.3 2.2 NW 4.5 0.0 1.4
21:05 7.8 3.1 72 1025.2 2.2 NW 4.5 0.0 1.4
21:06 7.8 3.3 73 1025.0 4.5 NE 4.5 0.0 1.4
21:07 7.8 3.3 73 1025.1 4.5 NE 4.5 0.0 1.4
21:08 7.8 3.3 73 1025.1 6.0 W 6.0 0.0 1.4
21:09 7.8 3.3 73 1024.9 6.0 SE 6.0 0.0 1.4
21:10 7.8 3.3 73 1025.2 5.4 NW 6.0 0.0 1.4
21:12 7.8 3.3 73 1025.3 3.8 N 6.0 0.0 1.4
21:13 7.8 3.1 72 1025.1 3.8 N 6.0 0.0 1.4
21:14 7.8 3.1 72 1025.2 3.8 N 6.0 0.0 1.4
21:15 7.8 3.1 72 1025.2 3.8 N 6.0 0.0 1.4
21:17 7.8 3.1 72 1025.2 4.5 NW 6.0 0.0 1.4
21:19 7.8 3.1 72 1025.4 6.0 SW 11.4 0.0 1.4
21:20 7.8 3.1 72 1025.5 6.9 NW 11.4 0.0 1.4
21:21 7.8 3.1 72 1025.4 6.9 N 11.4 0.0 1.4
21:22 7.8 3.1 72 1025.4 4.5 NW 11.4 0.0 1.4
21:23 7.8 3.1 72 1025.4 3.1 NW 11.4 0.0 1.4
21:24 7.8 3.1 72 1025.7 3.8 NE 11.4 0.0 1.4
21:25 7.8 3.1 72 1025.4 4.5 NW 11.4 0.0 1.4
21:26 7.8 3.1 72 1025.3 4.5 W 11.4 0.0 1.4
21:27 7.8 3.1 72 1025.4 3.8 W 11.4 0.0 1.4
21:28 7.8 3.1 72 1025.5 5.4 W 11.4 0.0 1.4
21:29 7.8 3.1 72 1025.4 6.0 NW 6.9 0.0 1.4
21:30 7.8 3.1 72 1025.5 6.0 W 6.9 0.0 1.4
21:31 7.8 3.1 72 1025.7 6.0 NW 6.9 0.0 1.4
21:33 7.8 3.1 72 1025.5 11.4 W 11.4 0.0 1.4
21:34 7.8 3.1 72 1025.5 8.3 NW 11.4 0.0 1.4
21:35 7.8 3.1 72 1025.4 6.9 NW 11.4 0.0 1.4
21:36 7.8 3.1 72 1025.3 7.6 NW 11.4 0.0 1.4
21:37 7.8 3.1 72 1025.4 5.4 NW 11.4 0.0 1.4
21:38 7.8 3.1 72 1025.3 6.0 W 11.4 0.0 1.4
21:39 7.8 3.1 72 1025.5 6.0 W 11.4 0.0 1.4
21:40 7.8 3.1 72 1025.4 6.9 NW 11.4 0.0 1.4
21:41 7.8 3.1 72 1025.5 5.4 SE 11.4 0.0 1.4
21:42 7.8 3.1 72 1025.4 4.5 NE 11.4 0.0 1.4
21:43 7.8 3.1 72 1025.4 5.4 NE 11.4 0.0 1.4
21:44 7.8 3.1 72 1025.6 6.0 SW 8.3 0.0 1.4
21:45 7.8 3.1 72 1025.4 5.4 NW 7.6 0.0 1.4
21:46 7.9 3.2 72 1025.5 10.7 NNW 10.7 0.0 1.4
21:48 7.9 3.2 72 1025.8 6.0 N 10.7 0.0 1.4
21:49 7.9 3.2 72 1025.6 8.3 WNW 10.7 0.0 1.4
21:50 7.9 3.2 72 1025.6 6.0 NE 10.7 0.0 1.4
21:51 7.9 3.2 72 1025.4 4.5 NW 10.7 0.0 1.4
21:52 7.9 3.2 72 1025.5 3.8 W 10.7 0.0 1.4
21:53 7.9 3.2 72 1025.7 4.5 NW 10.7 0.0 1.4
21:54 7.9 3.2 72 1025.6 5.4 NW 10.7 0.0 1.4
21:55 7.9 3.2 72 1025.5 8.3 NW 10.7 0.0 1.4
21:56 7.9 3.2 72 1025.6 6.0 W 10.7 0.0 1.4
21:57 7.9 3.2 72 1025.7 3.8 N 8.3 0.0 1.4
21:58 7.9 3.2 72 1025.6 3.8 SE 9.2 0.0 1.4
21:59 7.9 3.4 73 1025.3 2.2 N 9.2 0.0 1.4
22:00 7.9 3.4 73 1025.6 3.1 SW 9.2 0.0 1.4
22:01 7.9 3.4 73 1025.7 3.8 NW 9.2 0.0 1.4
22:02 7.9 3.4 73 1025.8 3.1 SW 9.2 0.0 1.4
22:03 7.9 3.4 73 1025.4 6.9 NW 9.2 0.0 1.4
22:05 7.9 3.4 73 1025.7 3.8 SE 9.2 0.0 1.4
22:06 7.9 3.4 73 1025.7 7.6 NW 9.2 0.0 1.4
22:07 7.9 3.4 73 1025.5 7.6 NW 9.2 0.0 1.4
22:08 7.9 3.4 73 1025.6 3.8 W 7.6 0.0 1.4
22:09 7.9 3.4 73 1025.9 4.5 NW 7.6 0.0 1.4
22:10 7.9 3.4 73 1025.5 5.4 NW 7.6 0.0 1.4
22:11 7.9 3.4 73 1025.6 3.8 N 7.6 0.0 1.4
22:12 7.9 3.4 73 1025.5 7.6 NW 7.6 0.0 1.4
22:13 7.9 3.4 73 1025.7 7.6 N 7.6 0.0 1.4
22:14 7.9 3.4 73 1025.6 4.5 N 7.6 0.0 1.4
22:15 7.9 3.4 73 1025.6 6.0 E 7.6 0.0 1.4
22:16 7.9 3.4 73 1025.5 4.5 NW 7.6 0.0 1.4
22:17 7.9 3.4 73 1025.7 7.6 W 7.6 0.0 1.4
22:18 7.8 3.3 73 1025.6 4.5 NW 7.6 0.0 1.4
22:19 7.8 3.3 73 1025.5 4.5 NW 7.6 0.0 1.4
22:20 7.8 3.3 73 1025.7 5.4 N 7.6 0.0 1.4
22:21 7.8 3.3 73 1025.8 5.4 NW 7.6 0.0 1.4
22:22 7.8 3.3 73 1025.8 4.5 W 7.6 0.0 1.4
22:23 7.8 3.3 73 1025.6 5.4 NW 7.6 0.0 1.4
22:24 7.8 3.3 73 1025.6 5.4 N 7.6 0.0 1.4
22:25 7.8 3.3 73 1025.8 3.8 W 7.6 0.0 1.4
22:26 7.8 3.3 73 1025.8 3.1 NW 7.6 0.0 1.4
22:27 7.8 3.5 74 1025.8 3.8 NW 7.6 0.0 1.4
22:28 7.8 3.5 74 1025.8 3.1 NW 6.0 0.0 1.4
22:29 7.8 3.5 74 1025.7 3.1 NW 6.0 0.0 1.4
22:30 7.8 3.5 74 1025.6 2.2 NW 6.0 0.0 1.4
22:31 7.8 3.5 74 1025.6 2.2 NW 6.0 0.0 1.4
22:32 7.7 3.4 74 1025.8 3.1 NW 5.4 0.0 1.4
22:33 7.7 3.4 74 1025.7 3.1 SW 5.4 0.0 1.4
22:34 7.7 3.4 74 1025.6 3.8 WNW 5.4 0.0 1.4
22:36 7.7 3.4 74 1025.9 3.1 W 3.8 0.0 1.4
22:37 7.6 3.3 74 1025.9 3.8 NW 3.8 0.0 1.4
22:38 7.6 3.3 74 1025.7 2.2 NW 3.8 0.0 1.4
22:39 7.6 3.3 74 1025.6 2.2 NW 3.8 0.0 1.4
22:40 7.6 3.3 74 1025.8 4.5 NW 4.5 0.0 1.4
22:41 7.6 3.3 74 1025.4 4.5 WNW 4.5 0.0 1.4
22:42 7.6 3.3 74 1025.4 4.5 WNW 4.5 0.0 1.4
22:43 7.6 3.3 74 1025.5 3.8 W 4.5 0.0 1.4
22:44 7.6 3.3 74 1025.5 4.5 W 4.5 0.0 1.4
22:45 7.6 3.3 74 1025.6 4.5 NW 4.5 0.0 1.4
22:46 7.6 3.3 74 1025.5 6.9 NW 6.9 0.0 1.4
22:47 7.6 3.3 74 1025.7 4.5 NW 6.9 0.0 1.4
22:48 7.6 3.3 74 1025.7 5.4 NW 6.9 0.0 1.4
22:49 7.6 3.3 74 1025.5 6.0 NW 6.9 0.0 1.4
22:51 7.6 3.3 74 1025.5 5.4 W 6.9 0.0 1.4
22:52 7.6 3.3 74 1025.7 4.5 W 6.9 0.0 1.4
22:53 7.6 3.3 74 1025.7 4.5 W 6.9 0.0 1.4
22:54 7.6 3.3 74 1025.8 4.5 W 6.9 0.0 1.4
22:55 7.6 3.3 74 1025.6 3.8 NW 6.9 0.0 1.4
22:56 7.5 3.2 74 1025.6 3.8 SE 6.9 0.0 1.4
22:57 7.5 3.2 74 1025.6 3.8 SE 6.0 0.0 1.4
22:58 7.5 3.2 74 1025.8 2.2 W 6.0 0.0 1.4
22:59 7.5 3.2 74 1025.7 3.1 NW 6.0 0.0 1.4
23:00 7.5 3.2 74 1026.0 3.8 N 5.4 0.0 1.4
23:01 7.5 3.2 74 1025.8 3.8 N 5.4 0.0 1.4
23:02 7.5 3.2 74 1025.8 3.8 N 4.5 0.0 1.4
23:03 7.5 3.2 74 1025.9 3.8 N 4.5 0.0 1.4
23:04 7.5 3.2 74 1025.9 3.8 N 4.5 0.0 1.4
23:05 7.5 3.2 74 1026.0 3.8 N 3.8 0.0 1.4
23:07 7.4 4.4 81 1025.9 4.5 NW 4.5 0.0 1.4
23:08 7.4 4.4 81 1025.8 4.5 NW 4.5 0.0 1.4
23:09 7.4 4.4 81 1025.7 6.0 NW 6.0 0.0 1.4
23:10 7.4 4.4 81 1025.6 6.0 NW 6.0 0.0 1.4
23:11 7.4 4.4 81 1026.0 3.8 NW 6.0 0.0 1.4
23:12 7.4 4.4 81 1025.8 4.5 W 6.0 0.0 1.4
23:13 7.4 4.4 81 1025.8 4.5 NW 6.0 0.0 1.4
23:14 7.4 4.4 81 1025.8 5.4 W 6.0 0.0 1.4
23:15 7.4 4.4 81 1026.0 3.8 NW 6.0 0.0 1.4
23:16 7.4 4.4 81 1025.7 3.1 NE 6.0 0.0 1.4
23:18 7.4 4.4 81 1025.7 5.4 NW 6.0 0.0 1.4
23:20 7.4 4.4 81 1025.8 6.9 N 8.3 0.0 1.4
23:21 7.4 4.4 81 1025.8 3.8 NW 8.3 0.0 1.4
23:22 7.4 4.4 81 1025.8 5.4 NW 8.3 0.0 1.4
23:23 7.4 4.4 81 1025.7 5.4 NW 8.3 0.0 1.4
23:24 7.4 4.4 81 1025.7 4.5 E 8.3 0.0 1.4
23:25 7.4 4.4 81 1025.8 6.9 NW 8.3 0.0 1.4
23:26 7.4 4.4 81 1025.9 6.9 NW 8.3 0.0 1.4
23:27 7.4 4.4 81 1025.6 6.9 NW 8.3 0.0 1.4
23:28 7.4 4.4 81 1025.9 4.5 N 8.3 0.0 1.4
23:29 7.4 4.4 81 1025.7 5.4 NW 8.3 0.0 1.4
23:30 7.4 4.4 81 1025.7 5.4 NW 6.9 0.0 1.4
23:31 7.4 4.4 81 1025.8 6.0 NW 6.9 0.0 1.4
23:32 7.4 4.4 81 1026.0 7.6 NW 7.6 0.0 1.4
23:33 7.4 4.4 81 1025.8 7.6 NW 7.6 0.0 1.4
23:35 7.5 3.4 75 1025.9 3.8 NNW 7.6 0.0 1.4
23:36 7.5 3.4 75 1025.8 6.9 NW 7.6 0.0 1.4
23:37 7.5 3.4 75 1026.1 6.9 NW 7.6 0.0 1.4
23:38 7.5 3.4 75 1026.1 5.4 N 7.6 0.0 1.4
23:39 7.5 3.4 75 1026.0 5.4 N 7.6 0.0 1.4
23:40 7.6 3.5 75 1026.2 3.8 NW 7.6 0.0 1.4
23:41 7.6 3.5 75 1026.0 5.4 W 7.6 0.0 1.4
23:42 7.6 3.5 75 1026.1 4.5 NW 7.6 0.0 1.4
23:43 7.6 3.5 75 1026.0 5.4 W 7.6 0.0 1.4
23:44 7.6 3.5 75 1026.1 5.4 W 6.9 0.0 1.4
23:45 7.6 3.5 75 1026.1 3.8 SW 6.9 0.0 1.4
23:46 7.6 3.5 75 1025.9 4.5 W 6.9 0.0 1.4
23:47 7.6 3.5 75 1026.1 4.5 NW 6.9 0.0 1.4
23:49 7.6 3.5 75 1026.0 3.8 NW 5.4 0.0 1.4
23:50 7.6 3.5 75 1026.1 4.5 NW 5.4 0.0 1.4
23:51 7.6 3.5 75 1026.0 3.8 N 5.4 0.0 1.4
23:52 7.6 3.5 75 1026.1 4.5 W 5.4 0.0 1.4
23:53 7.6 3.5 75 1025.9 4.5 NW 5.4 0.0 1.4
23:54 7.6 3.5 75 1026.2 4.5 NW 5.4 0.0 1.4
23:55 7.6 3.5 75 1025.9 7.6 NW 7.6 0.0 1.4
23:56 7.7 3.6 75 1026.0 7.6 N 7.6 0.0 1.4
23:57 7.7 3.6 75 1026.1 7.6 N 7.6 0.0 1.4
23:58 7.7 3.6 75 1026.0 3.1 WNW 7.6 0.0 1.4
23:59 7.7 3.6 75 1026.0 3.1 NW 7.6 0.0 1.4

 

 

UK - WEATHER STATION TOPSITES - UK World Weather Websites

Copyright © Carnkie Weather 2009 - 2021.